Time,TemperatureF,DewpointF,PressureIn,WindDirection,WindDirectionDegrees,WindSpeedMPH,WindSpeedGustMPH,Humidity,HourlyPrecipIn,Conditions,Clouds,dailyrainin,SoftwareType,DateUTC
2013-01-24 00:01:00,-5.8,-10.4,30.18,NW,319,0.0,0.0,80,0.00,,,0.00,Wunderground v.1.15,2013-01-24 05:01:00,
2013-01-24 00:04:00,-5.9,-10.5,30.18,NW,319,0.0,0.0,80,0.00,,,0.00,Wunderground v.1.15,2013-01-24 05:04:00,
2013-01-24 00:07:00,-5.9,-10.5,30.19,NW,319,0.0,0.0,80,0.00,,,0.00,Wunderground v.1.15,2013-01-24 05:07:00,
2013-01-24 00:08:00,-5.9,-10.2,30.18,NW,319,0.0,0.0,81,0.00,,,0.00,Wunderground v.1.15,2013-01-24 05:08:00,
2013-01-24 00:14:00,-6.1,-10.4,30.18,NW,319,0.0,0.0,81,0.00,,,0.00,Wunderground v.1.15,2013-01-24 05:14:00,
2013-01-24 00:15:00,-6.1,-10.4,30.19,NW,319,0.0,0.0,81,0.00,,,0.00,Wunderground v.1.15,2013-01-24 05:15:00,
2013-01-24 00:16:00,-6.1,-10.4,30.18,NW,319,0.0,0.0,81,0.00,,,0.00,Wunderground v.1.15,2013-01-24 05:16:00,
2013-01-24 00:20:00,-6.2,-10.5,30.18,NW,319,0.0,0.0,81,0.00,,,0.00,Wunderground v.1.15,2013-01-24 05:20:00,
2013-01-24 00:21:00,-6.2,-10.5,30.18,NW,319,0.0,0.0,81,0.00,,,0.00,Wunderground v.1.15,2013-01-24 05:21:00,
2013-01-24 00:25:00,-6.3,-10.6,30.18,NW,319,0.0,0.0,81,0.00,,,0.00,Wunderground v.1.15,2013-01-24 05:25:00,
2013-01-24 00:27:00,-6.3,-10.6,30.18,NW,319,0.0,0.0,81,0.00,,,0.00,Wunderground v.1.15,2013-01-24 05:27:00,
2013-01-24 00:28:00,-6.3,-10.6,30.18,NW,319,0.0,0.0,81,0.00,,,0.00,Wunderground v.1.15,2013-01-24 05:28:00,
2013-01-24 00:29:00,-6.3,-10.6,30.18,NW,319,0.0,0.0,81,0.00,,,0.00,Wunderground v.1.15,2013-01-24 05:29:00,
2013-01-24 00:30:00,-6.3,-10.6,30.18,NW,319,0.0,0.0,81,0.00,,,0.00,Wunderground v.1.15,2013-01-24 05:30:00,
2013-01-24 00:33:00,-6.4,-10.7,30.19,NW,319,0.0,0.0,81,0.00,,,0.00,Wunderground v.1.15,2013-01-24 05:33:00,
2013-01-24 00:36:00,-6.4,-10.7,30.19,NW,319,0.0,0.0,81,0.00,,,0.00,Wunderground v.1.15,2013-01-24 05:36:00,
2013-01-24 00:37:00,-6.4,-10.7,30.19,NW,319,0.0,0.0,81,0.00,,,0.00,Wunderground v.1.15,2013-01-24 05:37:00,
2013-01-24 00:39:00,-6.4,-10.7,30.19,NW,319,0.0,0.0,81,0.00,,,0.00,Wunderground v.1.15,2013-01-24 05:39:00,
2013-01-24 00:41:00,-6.5,-10.8,30.18,NW,319,0.0,0.0,81,0.00,,,0.00,Wunderground v.1.15,2013-01-24 05:41:00,
2013-01-24 00:44:00,-6.6,-10.9,30.19,NW,319,0.0,0.0,81,0.00,,,0.00,Wunderground v.1.15,2013-01-24 05:44:00,
2013-01-24 00:45:00,-6.6,-10.9,30.19,NW,319,0.0,0.0,81,0.00,,,0.00,Wunderground v.1.15,2013-01-24 05:45:00,
2013-01-24 00:46:00,-6.6,-10.9,30.19,NW,319,0.0,0.0,81,0.00,,,0.00,Wunderground v.1.15,2013-01-24 05:46:00,
2013-01-24 00:49:00,-6.7,-11.0,30.19,NW,319,0.0,0.0,81,0.00,,,0.00,Wunderground v.1.15,2013-01-24 05:49:00,
2013-01-24 00:56:00,-6.8,-11.1,30.18,NW,319,0.0,0.0,81,0.00,,,0.00,Wunderground v.1.15,2013-01-24 05:56:00,
2013-01-24 00:57:00,-6.8,-11.1,30.18,NW,319,0.0,0.0,81,0.00,,,0.00,Wunderground v.1.15,2013-01-24 05:57:00,
2013-01-24 00:58:00,-6.9,-11.2,30.18,NW,319,0.0,0.0,81,0.00,,,0.00,Wunderground v.1.15,2013-01-24 05:58:00,
2013-01-24 01:01:00,-7.0,-11.3,30.19,NW,319,0.0,0.0,81,0.00,,,0.00,Wunderground v.1.15,2013-01-24 06:01:00,
2013-01-24 01:04:00,-7.1,-11.4,30.18,NW,319,0.0,0.0,81,0.00,,,0.00,Wunderground v.1.15,2013-01-24 06:04:00,
2013-01-24 01:07:00,-7.2,-11.5,30.18,NW,319,0.0,0.0,81,0.00,,,0.00,Wunderground v.1.15,2013-01-24 06:07:00,
2013-01-24 01:08:00,-7.2,-11.5,30.18,NW,319,0.0,0.0,81,0.00,,,0.00,Wunderground v.1.15,2013-01-24 06:08:00,
2013-01-24 01:10:00,-7.2,-11.5,30.18,NW,319,0.0,0.0,81,0.00,,,0.00,Wunderground v.1.15,2013-01-24 06:10:00,
2013-01-24 01:11:00,-7.3,-11.6,30.18,NW,319,0.0,0.0,81,0.00,,,0.00,Wunderground v.1.15,2013-01-24 06:11:00,
2013-01-24 01:15:00,-7.4,-11.7,30.18,NW,319,0.0,0.0,81,0.00,,,0.00,Wunderground v.1.15,2013-01-24 06:15:00,
2013-01-24 01:17:00,-7.4,-11.7,30.19,NW,319,0.0,0.0,81,0.00,,,0.00,Wunderground v.1.15,2013-01-24 06:17:00,
2013-01-24 01:18:00,-7.5,-11.8,30.18,NW,319,0.0,0.0,81,0.00,,,0.00,Wunderground v.1.15,2013-01-24 06:18:00,
2013-01-24 01:21:00,-7.6,-11.9,30.18,NW,319,0.0,0.0,81,0.00,,,0.00,Wunderground v.1.15,2013-01-24 06:21:00,
2013-01-24 01:24:00,-7.6,-11.9,30.18,NW,319,0.0,0.0,81,0.00,,,0.00,Wunderground v.1.15,2013-01-24 06:24:00,
2013-01-24 01:25:00,-7.7,-12.0,30.18,NW,319,0.0,0.0,81,0.00,,,0.00,Wunderground v.1.15,2013-01-24 06:25:00,
2013-01-24 01:27:00,-7.7,-12.0,30.18,NW,319,0.0,0.0,81,0.00,,,0.00,Wunderground v.1.15,2013-01-24 06:27:00,
2013-01-24 01:30:00,-7.8,-12.1,30.19,NW,319,0.0,0.0,81,0.00,,,0.00,Wunderground v.1.15,2013-01-24 06:30:00,
2013-01-24 01:31:00,-7.8,-12.1,30.19,NW,319,0.0,0.0,81,0.00,,,0.00,Wunderground v.1.15,2013-01-24 06:31:00,
2013-01-24 01:36:00,-8.0,-12.3,30.19,NW,319,0.0,0.0,81,0.00,,,0.00,Wunderground v.1.15,2013-01-24 06:36:00,
2013-01-24 01:37:00,-8.0,-12.3,30.19,NW,319,0.0,0.0,81,0.00,,,0.00,Wunderground v.1.15,2013-01-24 06:37:00,
2013-01-24 01:41:00,-8.1,-12.1,30.19,NW,319,0.0,0.0,82,0.00,,,0.00,Wunderground v.1.15,2013-01-24 06:41:00,
2013-01-24 01:42:00,-8.1,-12.1,30.19,NW,319,0.0,0.0,82,0.00,,,0.00,Wunderground v.1.15,2013-01-24 06:42:00,
2013-01-24 01:44:00,-8.1,-12.4,30.19,NW,319,0.0,0.0,81,0.00,,,0.00,Wunderground v.1.15,2013-01-24 06:44:00,
2013-01-24 01:45:00,-8.2,-12.2,30.19,NW,319,0.0,0.0,82,0.00,,,0.00,Wunderground v.1.15,2013-01-24 06:45:00,
2013-01-24 01:48:00,-8.2,-12.2,30.19,NW,319,0.0,0.0,82,0.00,,,0.00,Wunderground v.1.15,2013-01-24 06:48:00,
2013-01-24 01:50:00,-8.2,-12.2,30.19,NW,319,0.0,0.0,82,0.00,,,0.00,Wunderground v.1.15,2013-01-24 06:50:00,
2013-01-24 01:52:00,-8.2,-12.2,30.19,NW,319,0.0,0.0,82,0.00,,,0.00,Wunderground v.1.15,2013-01-24 06:52:00,
2013-01-24 01:53:00,-8.3,-12.3,30.19,NW,319,0.0,0.0,82,0.00,,,0.00,Wunderground v.1.15,2013-01-24 06:53:00,
2013-01-24 01:54:00,-8.3,-12.3,30.19,NW,319,0.0,0.0,82,0.00,,,0.00,Wunderground v.1.15,2013-01-24 06:54:00,
2013-01-24 01:56:00,-8.3,-12.3,30.19,NW,319,0.0,0.0,82,0.00,,,0.00,Wunderground v.1.15,2013-01-24 06:56:00,
2013-01-24 01:59:00,-8.3,-12.3,30.19,NW,319,0.0,0.0,82,0.00,,,0.00,Wunderground v.1.15,2013-01-24 06:59:00,
2013-01-24 02:01:00,-8.4,-12.4,30.19,NW,319,0.0,0.0,82,0.00,,,0.00,Wunderground v.1.15,2013-01-24 07:01:00,
2013-01-24 02:03:00,-8.4,-12.4,30.19,NW,319,0.0,0.0,82,0.00,,,0.00,Wunderground v.1.15,2013-01-24 07:03:00,
2013-01-24 02:04:00,-8.4,-12.4,30.19,NW,319,0.0,0.0,82,0.00,,,0.00,Wunderground v.1.15,2013-01-24 07:04:00,
2013-01-24 02:07:00,-8.4,-12.4,30.19,NW,319,0.0,0.0,82,0.00,,,0.00,Wunderground v.1.15,2013-01-24 07:07:00,
2013-01-24 02:08:00,-8.4,-12.4,30.19,NW,319,0.0,0.0,82,0.00,,,0.00,Wunderground v.1.15,2013-01-24 07:08:00,
2013-01-24 02:09:00,-8.5,-12.5,30.19,NW,319,0.0,0.0,82,0.00,,,0.00,Wunderground v.1.15,2013-01-24 07:09:00,
2013-01-24 02:10:00,-8.5,-12.5,30.19,NW,319,0.0,0.0,82,0.00,,,0.00,Wunderground v.1.15,2013-01-24 07:10:00,
2013-01-24 02:13:00,-8.5,-12.5,30.19,NW,319,0.0,0.0,82,0.00,,,0.00,Wunderground v.1.15,2013-01-24 07:13:00,
2013-01-24 02:15:00,-8.5,-12.5,30.19,NW,319,0.0,0.0,82,0.00,,,0.00,Wunderground v.1.15,2013-01-24 07:15:00,
2013-01-24 02:16:00,-8.5,-12.5,30.19,NW,319,0.0,0.0,82,0.00,,,0.00,Wunderground v.1.15,2013-01-24 07:16:00,
2013-01-24 02:21:00,-8.6,-12.6,30.19,NW,319,0.0,0.0,82,0.00,,,0.00,Wunderground v.1.15,2013-01-24 07:21:00,
2013-01-24 02:22:00,-8.6,-12.6,30.19,NW,319,0.0,0.0,82,0.00,,,0.00,Wunderground v.1.15,2013-01-24 07:22:00,
2013-01-24 02:23:00,-8.6,-12.6,30.19,NW,319,0.0,0.0,82,0.00,,,0.00,Wunderground v.1.15,2013-01-24 07:23:00,
2013-01-24 02:26:00,-8.6,-12.6,30.19,NW,319,0.0,0.0,82,0.00,,,0.00,Wunderground v.1.15,2013-01-24 07:26:00,
2013-01-24 02:27:00,-8.7,-12.7,30.19,NW,319,0.0,0.0,82,0.00,,,0.00,Wunderground v.1.15,2013-01-24 07:27:00,
2013-01-24 02:28:00,-8.6,-12.6,30.19,NW,319,0.0,0.0,82,0.00,,,0.00,Wunderground v.1.15,2013-01-24 07:28:00,
2013-01-24 02:29:00,-8.7,-12.7,30.19,NW,319,0.0,0.0,82,0.00,,,0.00,Wunderground v.1.15,2013-01-24 07:29:00,
2013-01-24 02:33:00,-8.8,-12.8,30.19,NW,319,0.0,0.0,82,0.00,,,0.00,Wunderground v.1.15,2013-01-24 07:33:00,
2013-01-24 02:34:00,-8.8,-12.8,30.19,NW,319,0.0,0.0,82,0.00,,,0.00,Wunderground v.1.15,2013-01-24 07:34:00,
2013-01-24 02:35:00,-8.8,-12.8,30.19,NW,319,0.0,0.0,82,0.00,,,0.00,Wunderground v.1.15,2013-01-24 07:35:00,
2013-01-24 02:39:00,-8.9,-12.9,30.18,NW,319,0.0,0.0,82,0.00,,,0.00,Wunderground v.1.15,2013-01-24 07:39:00,
2013-01-24 02:41:00,-8.9,-12.9,30.18,NW,319,0.0,0.0,82,0.00,,,0.00,Wunderground v.1.15,2013-01-24 07:41:00,
2013-01-24 02:42:00,-8.9,-12.9,30.18,NW,319,0.0,0.0,82,0.00,,,0.00,Wunderground v.1.15,2013-01-24 07:42:00,
2013-01-24 02:46:00,-9.0,-13.0,30.18,NW,319,0.0,0.0,82,0.00,,,0.00,Wunderground v.1.15,2013-01-24 07:46:00,
2013-01-24 02:47:00,-9.0,-13.0,30.18,NW,319,0.0,0.0,82,0.00,,,0.00,Wunderground v.1.15,2013-01-24 07:47:00,
2013-01-24 02:49:00,-9.0,-13.0,30.18,NW,319,0.0,0.0,82,0.00,,,0.00,Wunderground v.1.15,2013-01-24 07:49:00,
2013-01-24 02:52:00,-9.1,-13.1,30.18,NW,319,0.0,0.0,82,0.00,,,0.00,Wunderground v.1.15,2013-01-24 07:52:00,
2013-01-24 02:53:00,-9.1,-13.4,30.18,NW,319,0.0,0.0,81,0.00,,,0.00,Wunderground v.1.15,2013-01-24 07:53:00,
2013-01-24 02:55:00,-9.2,-13.4,30.18,NW,319,0.0,0.0,81,0.00,,,0.00,Wunderground v.1.15,2013-01-24 07:55:00,
2013-01-24 02:57:00,-9.2,-13.4,30.18,NW,319,0.0,0.0,81,0.00,,,0.00,Wunderground v.1.15,2013-01-24 07:57:00,
2013-01-24 03:00:00,-9.3,-13.5,30.18,NW,319,0.0,0.0,81,0.00,,,0.00,Wunderground v.1.15,2013-01-24 08:00:00,
2013-01-24 03:03:00,-9.3,-13.5,30.18,NW,319,0.0,0.0,81,0.00,,,0.00,Wunderground v.1.15,2013-01-24 08:03:00,
2013-01-24 03:04:00,-9.3,-13.5,30.18,NW,319,0.0,0.0,81,0.00,,,0.00,Wunderground v.1.15,2013-01-24 08:04:00,
2013-01-24 03:05:00,-9.4,-13.6,30.18,NW,319,0.0,0.0,81,0.00,,,0.00,Wunderground v.1.15,2013-01-24 08:05:00,
2013-01-24 03:08:00,-9.4,-13.6,30.18,NW,319,0.0,0.0,81,0.00,,,0.00,Wunderground v.1.15,2013-01-24 08:08:00,
2013-01-24 03:09:00,-9.4,-13.4,30.18,NW,319,0.0,0.0,82,0.00,,,0.00,Wunderground v.1.15,2013-01-24 08:09:00,
2013-01-24 03:10:00,-9.4,-13.4,30.18,NW,319,0.0,0.0,82,0.00,,,0.00,Wunderground v.1.15,2013-01-24 08:10:00,
2013-01-24 03:11:00,-9.4,-13.6,30.18,NW,319,0.0,0.0,81,0.00,,,0.00,Wunderground v.1.15,2013-01-24 08:11:00,
2013-01-24 03:15:00,-9.5,-13.5,30.18,NW,319,0.0,0.0,82,0.00,,,0.00,Wunderground v.1.15,2013-01-24 08:15:00,
2013-01-24 03:16:00,-9.5,-13.5,30.18,NW,319,0.0,0.0,82,0.00,,,0.00,Wunderground v.1.15,2013-01-24 08:16:00,
2013-01-24 03:21:00,-9.6,-13.8,30.18,NW,319,0.0,0.0,81,0.00,,,0.00,Wunderground v.1.15,2013-01-24 08:21:00,
2013-01-24 03:22:00,-9.6,-13.8,30.18,NW,319,0.0,0.0,81,0.00,,,0.00,Wunderground v.1.15,2013-01-24 08:22:00,
2013-01-24 03:26:00,-9.7,-13.9,30.18,NW,319,0.0,0.0,81,0.00,,,0.00,Wunderground v.1.15,2013-01-24 08:26:00,
2013-01-24 03:27:00,-9.7,-13.9,30.18,NW,319,0.0,0.0,81,0.00,,,0.00,Wunderground v.1.15,2013-01-24 08:27:00,
2013-01-24 03:28:00,-9.8,-14.0,30.18,NW,319,0.0,0.0,81,0.00,,,0.00,Wunderground v.1.15,2013-01-24 08:28:00,
2013-01-24 03:31:00,-9.8,-14.0,30.19,NW,319,0.0,0.0,81,0.00,,,0.00,Wunderground v.1.15,2013-01-24 08:31:00,
2013-01-24 03:32:00,-9.8,-14.0,30.19,NW,319,0.0,0.0,81,0.00,,,0.00,Wunderground v.1.15,2013-01-24 08:32:00,
2013-01-24 03:34:00,-9.9,-14.1,30.19,NW,319,0.0,0.0,81,0.00,,,0.00,Wunderground v.1.15,2013-01-24 08:34:00,
2013-01-24 03:36:00,-9.9,-14.1,30.18,NW,319,0.0,0.0,81,0.00,,,0.00,Wunderground v.1.15,2013-01-24 08:36:00,
2013-01-24 03:38:00,-9.9,-14.1,30.18,NW,319,0.0,0.0,81,0.00,,,0.00,Wunderground v.1.15,2013-01-24 08:38:00,
2013-01-24 03:39:00,-9.9,-14.1,30.18,NW,319,0.0,0.0,81,0.00,,,0.00,Wunderground v.1.15,2013-01-24 08:39:00,
2013-01-24 03:43:00,-10.0,-14.2,30.18,NW,319,0.0,0.0,81,0.00,,,0.00,Wunderground v.1.15,2013-01-24 08:43:00,
2013-01-24 03:44:00,-10.0,-14.2,30.18,NW,319,0.0,0.0,81,0.00,,,0.00,Wunderground v.1.15,2013-01-24 08:44:00,
2013-01-24 03:45:00,-10.0,-14.2,30.18,NW,319,0.0,0.0,81,0.00,,,0.00,Wunderground v.1.15,2013-01-24 08:45:00,
2013-01-24 03:47:00,-10.0,-14.2,30.18,NW,319,0.0,0.0,81,0.00,,,0.00,Wunderground v.1.15,2013-01-24 08:47:00,
2013-01-24 03:49:00,-10.0,-14.2,30.18,NW,319,0.0,0.0,81,0.00,,,0.00,Wunderground v.1.15,2013-01-24 08:49:00,
2013-01-24 03:50:00,-10.0,-14.2,30.18,NW,319,0.0,0.0,81,0.00,,,0.00,Wunderground v.1.15,2013-01-24 08:50:00,
2013-01-24 03:51:00,-10.1,-14.3,30.18,NW,319,0.0,0.0,81,0.00,,,0.00,Wunderground v.1.15,2013-01-24 08:51:00,
2013-01-24 03:52:00,-10.0,-14.2,30.18,NW,319,0.0,0.0,81,0.00,,,0.00,Wunderground v.1.15,2013-01-24 08:52:00,
2013-01-24 03:55:00,-10.1,-14.3,30.18,NW,319,0.0,0.0,81,0.00,,,0.00,Wunderground v.1.15,2013-01-24 08:55:00,
2013-01-24 03:56:00,-10.1,-14.3,30.18,NW,319,0.0,0.0,81,0.00,,,0.00,Wunderground v.1.15,2013-01-24 08:56:00,
2013-01-24 03:57:00,-10.1,-14.3,30.18,NW,319,0.0,0.0,81,0.00,,,0.00,Wunderground v.1.15,2013-01-24 08:57:00,
2013-01-24 04:00:00,-10.2,-14.4,30.18,NW,319,0.0,0.0,81,0.00,,,0.00,Wunderground v.1.15,2013-01-24 09:00:00,
2013-01-24 04:01:00,-10.2,-14.4,30.18,NW,319,0.0,0.0,81,0.00,,,0.00,Wunderground v.1.15,2013-01-24 09:01:00,
2013-01-24 04:02:00,-10.2,-14.4,30.18,NW,319,0.0,0.0,81,0.00,,,0.00,Wunderground v.1.15,2013-01-24 09:02:00,
2013-01-24 04:03:00,-10.2,-14.4,30.18,NW,319,0.0,0.0,81,0.00,,,0.00,Wunderground v.1.15,2013-01-24 09:03:00,
2013-01-24 04:05:00,-10.2,-14.4,30.18,NW,319,0.0,0.0,81,0.00,,,0.00,Wunderground v.1.15,2013-01-24 09:05:00,
2013-01-24 04:08:00,-10.2,-14.4,30.18,NW,319,0.0,0.0,81,0.00,,,0.00,Wunderground v.1.15,2013-01-24 09:08:00,
2013-01-24 04:09:00,-10.2,-14.2,30.18,NW,319,0.0,0.0,82,0.00,,,0.00,Wunderground v.1.15,2013-01-24 09:09:00,
2013-01-24 04:10:00,-10.2,-14.4,30.18,NW,319,0.0,0.0,81,0.00,,,0.00,Wunderground v.1.15,2013-01-24 09:10:00,
2013-01-24 04:13:00,-10.2,-14.4,30.18,NW,319,0.0,0.0,81,0.00,,,0.00,Wunderground v.1.15,2013-01-24 09:13:00,
2013-01-24 04:14:00,-10.2,-14.4,30.18,NW,319,0.0,0.0,81,0.00,,,0.00,Wunderground v.1.15,2013-01-24 09:14:00,
2013-01-24 04:16:00,-10.3,-14.5,30.18,NW,319,0.0,0.0,81,0.00,,,0.00,Wunderground v.1.15,2013-01-24 09:16:00,
2013-01-24 04:19:00,-10.3,-14.5,30.18,NW,319,0.0,0.0,81,0.00,,,0.00,Wunderground v.1.15,2013-01-24 09:19:00,
2013-01-24 04:20:00,-10.3,-14.5,30.18,NW,319,0.0,0.0,81,0.00,,,0.00,Wunderground v.1.15,2013-01-24 09:20:00,
2013-01-24 04:22:00,-10.4,-14.6,30.18,NW,319,0.0,0.0,81,0.00,,,0.00,Wunderground v.1.15,2013-01-24 09:22:00,
2013-01-24 04:26:00,-10.4,-14.6,30.18,NW,319,0.0,0.0,81,0.00,,,0.00,Wunderground v.1.15,2013-01-24 09:26:00,
2013-01-24 04:28:00,-10.4,-14.6,30.18,NW,319,0.0,0.0,81,0.00,,,0.00,Wunderground v.1.15,2013-01-24 09:28:00,
2013-01-24 04:29:00,-10.4,-14.6,30.18,NW,319,0.0,0.0,81,0.00,,,0.00,Wunderground v.1.15,2013-01-24 09:29:00,
2013-01-24 04:32:00,-10.4,-14.6,30.18,NW,319,0.0,0.0,81,0.00,,,0.00,Wunderground v.1.15,2013-01-24 09:32:00,
2013-01-24 04:34:00,-10.5,-14.7,30.18,NW,319,0.0,0.0,81,0.00,,,0.00,Wunderground v.1.15,2013-01-24 09:34:00,
2013-01-24 04:35:00,-10.5,-14.7,30.18,NW,319,0.0,0.0,81,0.00,,,0.00,Wunderground v.1.15,2013-01-24 09:35:00,
2013-01-24 04:36:00,-10.5,-14.7,30.18,NW,319,0.0,0.0,81,0.00,,,0.00,Wunderground v.1.15,2013-01-24 09:36:00,
2013-01-24 04:37:00,-10.5,-14.7,30.18,NW,319,0.0,0.0,81,0.00,,,0.00,Wunderground v.1.15,2013-01-24 09:37:00,
2013-01-24 04:40:00,-10.5,-14.5,30.18,NW,319,0.0,0.0,82,0.00,,,0.00,Wunderground v.1.15,2013-01-24 09:40:00,
2013-01-24 04:41:00,-10.5,-14.5,30.18,NW,319,0.0,0.0,82,0.00,,,0.00,Wunderground v.1.15,2013-01-24 09:41:00,
2013-01-24 04:42:00,-10.5,-14.5,30.18,NW,319,0.0,0.0,82,0.00,,,0.00,Wunderground v.1.15,2013-01-24 09:42:00,
2013-01-24 04:44:00,-10.5,-14.5,30.18,NW,319,0.0,0.0,82,0.00,,,0.00,Wunderground v.1.15,2013-01-24 09:44:00,
2013-01-24 04:45:00,-10.5,-14.5,30.18,NW,319,0.0,0.0,82,0.00,,,0.00,Wunderground v.1.15,2013-01-24 09:45:00,
2013-01-24 04:46:00,-10.5,-14.5,30.18,NW,319,0.0,0.0,82,0.00,,,0.00,Wunderground v.1.15,2013-01-24 09:46:00,
2013-01-24 04:49:00,-10.5,-14.5,30.18,NW,319,0.0,0.0,82,0.00,,,0.00,Wunderground v.1.15,2013-01-24 09:49:00,
2013-01-24 04:51:00,-10.5,-14.5,30.18,NW,319,0.0,0.0,82,0.00,,,0.00,Wunderground v.1.15,2013-01-24 09:51:00,
2013-01-24 04:52:00,-10.5,-14.5,30.18,NW,319,0.0,0.0,82,0.00,,,0.00,Wunderground v.1.15,2013-01-24 09:52:00,
2013-01-24 04:55:00,-10.5,-14.5,30.18,NW,319,0.0,0.0,82,0.00,,,0.00,Wunderground v.1.15,2013-01-24 09:55:00,
2013-01-24 04:56:00,-10.5,-14.5,30.18,NW,319,0.0,0.0,82,0.00,,,0.00,Wunderground v.1.15,2013-01-24 09:56:00,
2013-01-24 04:57:00,-10.5,-14.5,30.18,NW,319,0.0,0.0,82,0.00,,,0.00,Wunderground v.1.15,2013-01-24 09:57:00,
2013-01-24 05:00:00,-10.6,-14.8,30.18,NW,319,0.0,0.0,81,0.00,,,0.00,Wunderground v.1.15,2013-01-24 10:00:00,
2013-01-24 05:01:00,-10.6,-14.8,30.18,NW,319,0.0,0.0,81,0.00,,,0.00,Wunderground v.1.15,2013-01-24 10:01:00,
2013-01-24 05:03:00,-10.6,-14.8,30.18,NW,319,0.0,0.0,81,0.00,,,0.00,Wunderground v.1.15,2013-01-24 10:03:00,
2013-01-24 05:06:00,-10.6,-14.8,30.19,NW,319,0.0,0.0,81,0.00,,,0.00,Wunderground v.1.15,2013-01-24 10:06:00,
2013-01-24 05:09:00,-10.7,-14.9,30.19,NW,319,0.0,0.0,81,0.00,,,0.00,Wunderground v.1.15,2013-01-24 10:09:00,
2013-01-24 05:11:00,-10.7,-14.9,30.19,NW,319,0.0,0.0,81,0.00,,,0.00,Wunderground v.1.15,2013-01-24 10:11:00,
2013-01-24 05:12:00,-10.7,-14.9,30.18,NW,319,0.0,0.0,81,0.00,,,0.00,Wunderground v.1.15,2013-01-24 10:12:00,
2013-01-24 05:13:00,-10.7,-14.9,30.18,NW,319,0.0,0.0,81,0.00,,,0.00,Wunderground v.1.15,2013-01-24 10:13:00,
2013-01-24 05:15:00,-10.7,-14.9,30.19,NW,319,0.0,0.0,81,0.00,,,0.00,Wunderground v.1.15,2013-01-24 10:15:00,
2013-01-24 05:16:00,-10.7,-14.9,30.19,NW,319,0.0,0.0,81,0.00,,,0.00,Wunderground v.1.15,2013-01-24 10:16:00,
2013-01-24 05:18:00,-10.6,-14.8,30.19,NW,319,0.0,0.0,81,0.00,,,0.00,Wunderground v.1.15,2013-01-24 10:18:00,
2013-01-24 05:20:00,-10.6,-14.8,30.19,NW,319,0.0,0.0,81,0.00,,,0.00,Wunderground v.1.15,2013-01-24 10:20:00,
2013-01-24 05:21:00,-10.6,-14.8,30.19,NW,319,0.0,0.0,81,0.00,,,0.00,Wunderground v.1.15,2013-01-24 10:21:00,
2013-01-24 05:22:00,-10.6,-14.8,30.19,NW,319,0.0,0.0,81,0.00,,,0.00,Wunderground v.1.15,2013-01-24 10:22:00,
2013-01-24 05:24:00,-10.6,-14.8,30.19,NW,319,0.0,0.0,81,0.00,,,0.00,Wunderground v.1.15,2013-01-24 10:24:00,
2013-01-24 05:27:00,-10.6,-14.8,30.19,NW,319,0.0,0.0,81,0.00,,,0.00,Wunderground v.1.15,2013-01-24 10:27:00,
2013-01-24 05:28:00,-10.6,-14.8,30.19,NW,319,0.0,0.0,81,0.00,,,0.00,Wunderground v.1.15,2013-01-24 10:28:00,
2013-01-24 05:29:00,-10.6,-14.8,30.20,NW,319,0.0,0.0,81,0.00,,,0.00,Wunderground v.1.15,2013-01-24 10:29:00,
2013-01-24 05:32:00,-10.6,-14.8,30.20,NW,319,0.0,0.0,81,0.00,,,0.00,Wunderground v.1.15,2013-01-24 10:32:00,
2013-01-24 05:34:00,-10.6,-14.8,30.20,NW,319,0.0,0.0,81,0.00,,,0.00,Wunderground v.1.15,2013-01-24 10:34:00,
2013-01-24 05:36:00,-10.6,-14.8,30.20,NW,319,0.0,0.0,81,0.00,,,0.00,Wunderground v.1.15,2013-01-24 10:36:00,
2013-01-24 05:38:00,-10.6,-14.8,30.20,NW,319,0.0,0.0,81,0.00,,,0.00,Wunderground v.1.15,2013-01-24 10:38:00,
2013-01-24 05:41:00,-10.6,-14.8,30.20,NW,319,0.0,0.0,81,0.00,,,0.00,Wunderground v.1.15,2013-01-24 10:41:00,
2013-01-24 05:43:00,-10.6,-14.8,30.20,NW,319,0.0,0.0,81,0.00,,,0.00,Wunderground v.1.15,2013-01-24 10:43:00,
2013-01-24 05:44:00,-10.6,-14.8,30.20,NW,319,0.0,0.0,81,0.00,,,0.00,Wunderground v.1.15,2013-01-24 10:44:00,
2013-01-24 05:47:00,-10.6,-14.8,30.20,NW,319,0.0,0.0,81,0.00,,,0.00,Wunderground v.1.15,2013-01-24 10:47:00,
2013-01-24 05:49:00,-10.6,-14.8,30.20,NW,319,0.0,0.0,81,0.00,,,0.00,Wunderground v.1.15,2013-01-24 10:49:00,
2013-01-24 05:50:00,-10.6,-14.8,30.20,NW,319,0.0,0.0,81,0.00,,,0.00,Wunderground v.1.15,2013-01-24 10:50:00,
2013-01-24 05:52:00,-10.6,-14.8,30.20,NW,319,0.0,0.0,81,0.00,,,0.00,Wunderground v.1.15,2013-01-24 10:52:00,
2013-01-24 05:54:00,-10.6,-14.8,30.20,NW,319,0.0,0.0,81,0.00,,,0.00,Wunderground v.1.15,2013-01-24 10:54:00,
2013-01-24 05:57:00,-10.5,-14.5,30.20,NW,319,0.0,0.0,82,0.00,,,0.00,Wunderground v.1.15,2013-01-24 10:57:00,
2013-01-24 05:59:00,-10.5,-14.7,30.20,NW,319,0.0,0.0,81,0.00,,,0.00,Wunderground v.1.15,2013-01-24 10:59:00,
2013-01-24 06:00:00,-10.5,-14.7,30.20,NW,319,0.0,0.0,81,0.00,,,0.00,Wunderground v.1.15,2013-01-24 11:00:00,
2013-01-24 06:03:00,-10.5,-14.5,30.21,NW,319,0.0,0.0,82,0.00,,,0.00,Wunderground v.1.15,2013-01-24 11:03:00,
2013-01-24 06:05:00,-10.5,-14.7,30.21,NW,319,0.0,0.0,81,0.00,,,0.00,Wunderground v.1.15,2013-01-24 11:05:00,
2013-01-24 06:08:00,-10.5,-14.5,30.21,NW,319,0.0,0.0,82,0.00,,,0.00,Wunderground v.1.15,2013-01-24 11:08:00,
2013-01-24 06:09:00,-10.5,-14.5,30.21,NW,319,0.0,0.0,82,0.00,,,0.00,Wunderground v.1.15,2013-01-24 11:09:00,
2013-01-24 06:14:00,-10.5,-14.5,30.21,NW,319,0.0,0.0,82,0.00,,,0.00,Wunderground v.1.15,2013-01-24 11:14:00,
2013-01-24 06:15:00,-10.5,-14.5,30.21,NW,319,0.0,0.0,82,0.00,,,0.00,Wunderground v.1.15,2013-01-24 11:15:00,
2013-01-24 06:17:00,-10.5,-14.5,30.21,NW,319,0.0,0.0,82,0.00,,,0.00,Wunderground v.1.15,2013-01-24 11:17:00,
2013-01-24 06:20:00,-10.4,-14.4,30.21,NW,319,0.0,0.0,82,0.00,,,0.00,Wunderground v.1.15,2013-01-24 11:20:00,
2013-01-24 06:21:00,-10.4,-14.4,30.21,NW,319,0.0,0.0,82,0.00,,,0.00,Wunderground v.1.15,2013-01-24 11:21:00,
2013-01-24 06:22:00,-10.4,-14.4,30.21,NW,319,0.0,0.0,82,0.00,,,0.00,Wunderground v.1.15,2013-01-24 11:22:00,
2013-01-24 06:26:00,-10.4,-14.4,30.22,NW,319,0.0,0.0,82,0.00,,,0.00,Wunderground v.1.15,2013-01-24 11:26:00,
2013-01-24 06:27:00,-10.4,-14.4,30.22,NW,319,0.0,0.0,82,0.00,,,0.00,Wunderground v.1.15,2013-01-24 11:27:00,
2013-01-24 06:28:00,-10.4,-14.4,30.22,NW,319,0.0,0.0,82,0.00,,,0.00,Wunderground v.1.15,2013-01-24 11:28:00,
2013-01-24 06:30:00,-10.4,-14.4,30.22,NW,319,0.0,0.0,82,0.00,,,0.00,Wunderground v.1.15,2013-01-24 11:30:00,
2013-01-24 06:32:00,-10.4,-14.4,30.21,NW,319,0.0,0.0,82,0.00,,,0.00,Wunderground v.1.15,2013-01-24 11:32:00,
2013-01-24 06:33:00,-10.4,-14.4,30.22,NW,319,0.0,0.0,82,0.00,,,0.00,Wunderground v.1.15,2013-01-24 11:33:00,
2013-01-24 06:35:00,-10.3,-14.3,30.22,NW,319,0.0,0.0,82,0.00,,,0.00,Wunderground v.1.15,2013-01-24 11:35:00,
2013-01-24 06:36:00,-10.3,-14.3,30.22,NW,319,0.0,0.0,82,0.00,,,0.00,Wunderground v.1.15,2013-01-24 11:36:00,
2013-01-24 06:37:00,-10.3,-14.3,30.22,NW,319,0.0,0.0,82,0.00,,,0.00,Wunderground v.1.15,2013-01-24 11:37:00,
2013-01-24 06:38:00,-10.3,-14.3,30.22,NW,319,0.0,0.0,82,0.00,,,0.00,Wunderground v.1.15,2013-01-24 11:38:00,
2013-01-24 06:41:00,-10.3,-14.3,30.22,NW,319,0.0,0.0,82,0.00,,,0.00,Wunderground v.1.15,2013-01-24 11:41:00,
2013-01-24 06:42:00,-10.3,-14.3,30.22,NW,319,0.0,0.0,82,0.00,,,0.00,Wunderground v.1.15,2013-01-24 11:42:00,
2013-01-24 06:43:00,-10.3,-14.3,30.22,NW,319,0.0,0.0,82,0.00,,,0.00,Wunderground v.1.15,2013-01-24 11:43:00,
2013-01-24 06:44:00,-10.3,-14.3,30.22,NW,319,0.0,0.0,82,0.00,,,0.00,Wunderground v.1.15,2013-01-24 11:44:00,
2013-01-24 06:47:00,-10.3,-14.3,30.22,NW,319,0.0,0.0,82,0.00,,,0.00,Wunderground v.1.15,2013-01-24 11:47:00,
2013-01-24 06:49:00,-10.3,-14.3,30.22,NW,319,0.0,0.0,82,0.00,,,0.00,Wunderground v.1.15,2013-01-24 11:49:00,
2013-01-24 06:50:00,-10.3,-14.3,30.22,NW,319,0.0,0.0,82,0.00,,,0.00,Wunderground v.1.15,2013-01-24 11:50:00,
2013-01-24 06:51:00,-10.3,-14.3,30.22,NW,319,0.0,0.0,82,0.00,,,0.00,Wunderground v.1.15,2013-01-24 11:51:00,
2013-01-24 06:55:00,-10.4,-14.4,30.22,NW,319,0.0,0.0,82,0.00,,,0.00,Wunderground v.1.15,2013-01-24 11:55:00,
2013-01-24 06:58:00,-10.4,-14.4,30.22,NW,319,0.0,0.0,82,0.00,,,0.00,Wunderground v.1.15,2013-01-24 11:58:00,
2013-01-24 07:00:00,-10.4,-14.4,30.22,NW,319,0.0,0.0,82,0.00,,,0.00,Wunderground v.1.15,2013-01-24 12:00:00,
2013-01-24 07:02:00,-10.4,-14.4,30.22,NW,319,0.0,0.0,82,0.00,,,0.00,Wunderground v.1.15,2013-01-24 12:02:00,
2013-01-24 07:04:00,-10.4,-14.4,30.22,NW,319,0.0,0.0,82,0.00,,,0.00,Wunderground v.1.15,2013-01-24 12:04:00,
2013-01-24 07:05:00,-10.4,-14.4,30.22,NW,319,0.0,0.0,82,0.00,,,0.00,Wunderground v.1.15,2013-01-24 12:05:00,
2013-01-24 07:09:00,-10.4,-14.4,30.23,NW,319,0.0,0.0,82,0.00,,,0.00,Wunderground v.1.15,2013-01-24 12:09:00,
2013-01-24 07:10:00,-10.3,-14.3,30.23,NW,319,0.0,0.0,82,0.00,,,0.00,Wunderground v.1.15,2013-01-24 12:10:00,
2013-01-24 07:11:00,-10.3,-14.3,30.23,NW,319,0.0,0.0,82,0.00,,,0.00,Wunderground v.1.15,2013-01-24 12:11:00,
2013-01-24 07:12:00,-10.3,-14.3,30.23,NW,319,0.0,0.0,82,0.00,,,0.00,Wunderground v.1.15,2013-01-24 12:12:00,
2013-01-24 07:15:00,-10.3,-14.3,30.23,NW,319,0.0,0.0,82,0.00,,,0.00,Wunderground v.1.15,2013-01-24 12:15:00,
2013-01-24 07:16:00,-10.3,-14.3,30.23,NW,319,0.0,0.0,82,0.00,,,0.00,Wunderground v.1.15,2013-01-24 12:16:00,
2013-01-24 07:18:00,-10.3,-14.3,30.23,NW,319,0.0,0.0,82,0.00,,,0.00,Wunderground v.1.15,2013-01-24 12:18:00,
2013-01-24 07:19:00,-10.3,-14.3,30.23,NW,319,0.0,0.0,82,0.00,,,0.00,Wunderground v.1.15,2013-01-24 12:19:00,
2013-01-24 07:23:00,-10.2,-14.2,30.24,NW,319,0.0,0.0,82,0.00,,,0.00,Wunderground v.1.15,2013-01-24 12:23:00,
2013-01-24 07:25:00,-10.2,-14.2,30.24,NW,319,0.0,0.0,82,0.00,,,0.00,Wunderground v.1.15,2013-01-24 12:25:00,
2013-01-24 07:26:00,-10.2,-14.2,30.23,NW,319,0.0,0.0,82,0.00,,,0.00,Wunderground v.1.15,2013-01-24 12:26:00,
2013-01-24 07:29:00,-10.2,-14.2,30.23,NW,319,0.0,0.0,82,0.00,,,0.00,Wunderground v.1.15,2013-01-24 12:29:00,
2013-01-24 07:31:00,-10.2,-14.2,30.24,NW,319,0.0,0.0,82,0.00,,,0.00,Wunderground v.1.15,2013-01-24 12:31:00,
2013-01-24 07:32:00,-10.2,-14.2,30.24,NW,319,0.0,0.0,82,0.00,,,0.00,Wunderground v.1.15,2013-01-24 12:32:00,
2013-01-24 07:35:00,-10.2,-14.2,30.24,NW,319,0.0,0.0,82,0.00,,,0.00,Wunderground v.1.15,2013-01-24 12:35:00,
2013-01-24 07:37:00,-10.1,-14.1,30.24,NW,319,0.0,0.0,82,0.00,,,0.00,Wunderground v.1.15,2013-01-24 12:37:00,
2013-01-24 07:38:00,-10.2,-14.2,30.24,NW,319,0.0,0.0,82,0.00,,,0.00,Wunderground v.1.15,2013-01-24 12:38:00,
2013-01-24 07:40:00,-10.1,-14.1,30.24,NW,319,0.0,0.0,82,0.00,,,0.00,Wunderground v.1.15,2013-01-24 12:40:00,
2013-01-24 07:41:00,-10.1,-14.1,30.24,NW,319,0.0,0.0,82,0.00,,,0.00,Wunderground v.1.15,2013-01-24 12:41:00,
2013-01-24 07:42:00,-10.1,-14.1,30.24,NW,319,0.0,0.0,82,0.00,,,0.00,Wunderground v.1.15,2013-01-24 12:42:00,
2013-01-24 07:46:00,-10.0,-14.0,30.24,NW,319,0.0,0.0,82,0.00,,,0.00,Wunderground v.1.15,2013-01-24 12:46:00,
2013-01-24 07:49:00,-10.0,-14.0,30.24,NW,319,0.0,0.0,82,0.00,,,0.00,Wunderground v.1.15,2013-01-24 12:49:00,
2013-01-24 07:52:00,-9.9,-13.9,30.24,NW,319,0.0,0.0,82,0.00,,,0.00,Wunderground v.1.15,2013-01-24 12:52:00,
2013-01-24 07:53:00,-9.9,-13.9,30.24,NW,319,0.0,0.0,82,0.00,,,0.00,Wunderground v.1.15,2013-01-24 12:53:00,
2013-01-24 07:55:00,-9.9,-13.9,30.25,NW,319,0.0,0.0,82,0.00,,,0.00,Wunderground v.1.15,2013-01-24 12:55:00,
2013-01-24 07:57:00,-9.8,-13.8,30.25,NW,319,0.0,0.0,82,0.00,,,0.00,Wunderground v.1.15,2013-01-24 12:57:00,
2013-01-24 07:58:00,-9.7,-13.7,30.25,NW,319,0.0,0.0,82,0.00,,,0.00,Wunderground v.1.15,2013-01-24 12:58:00,
2013-01-24 08:00:00,-9.7,-13.7,30.25,NW,319,0.0,0.0,82,0.00,,,0.00,Wunderground v.1.15,2013-01-24 13:00:00,
2013-01-24 08:02:00,-9.5,-13.3,30.25,NW,319,0.0,0.0,83,0.00,,,0.00,Wunderground v.1.15,2013-01-24 13:02:00,
2013-01-24 08:03:00,-9.5,-13.3,30.25,NW,319,0.0,0.0,83,0.00,,,0.00,Wunderground v.1.15,2013-01-24 13:03:00,
2013-01-24 08:05:00,-9.4,-13.2,30.25,NW,319,0.0,0.0,83,0.00,,,0.00,Wunderground v.1.15,2013-01-24 13:05:00,
2013-01-24 08:09:00,-9.3,-13.1,30.25,NW,319,0.0,0.0,83,0.00,,,0.00,Wunderground v.1.15,2013-01-24 13:09:00,
2013-01-24 08:10:00,-9.2,-13.0,30.25,NW,319,0.0,0.0,83,0.00,,,0.00,Wunderground v.1.15,2013-01-24 13:10:00,
2013-01-24 08:11:00,-9.2,-13.0,30.25,NW,319,0.0,0.0,83,0.00,,,0.00,Wunderground v.1.15,2013-01-24 13:11:00,
2013-01-24 08:15:00,-8.9,-12.7,30.25,NW,319,0.0,0.0,83,0.00,,,0.00,Wunderground v.1.15,2013-01-24 13:15:00,
2013-01-24 08:16:00,-8.9,-12.7,30.25,NW,319,0.0,0.0,83,0.00,,,0.00,Wunderground v.1.15,2013-01-24 13:16:00,
2013-01-24 08:21:00,-8.5,-12.3,30.25,NW,319,0.0,0.0,83,0.00,,,0.00,Wunderground v.1.15,2013-01-24 13:21:00,
2013-01-24 08:23:00,-8.2,-12.0,30.25,NW,319,0.0,0.0,83,0.00,,,0.00,Wunderground v.1.15,2013-01-24 13:23:00,
2013-01-24 08:26:00,-7.9,-11.4,30.26,NW,319,0.0,0.0,84,0.00,,,0.00,Wunderground v.1.15,2013-01-24 13:26:00,
2013-01-24 08:27:00,-7.8,-11.3,30.26,NW,319,0.0,0.0,84,0.00,,,0.00,Wunderground v.1.15,2013-01-24 13:27:00,
2013-01-24 08:29:00,-7.6,-11.1,30.25,NW,319,0.0,0.0,84,0.00,,,0.00,Wunderground v.1.15,2013-01-24 13:29:00,
2013-01-24 08:32:00,-7.2,-10.8,30.26,NW,319,0.0,0.0,84,0.00,,,0.00,Wunderground v.1.15,2013-01-24 13:32:00,
2013-01-24 08:33:00,-7.1,-10.7,30.26,NW,319,0.0,0.0,84,0.00,,,0.00,Wunderground v.1.15,2013-01-24 13:33:00,
2013-01-24 08:34:00,-6.8,-10.1,30.26,NW,319,0.0,0.0,85,0.00,,,0.00,Wunderground v.1.15,2013-01-24 13:34:00,
2013-01-24 08:35:00,-6.7,-10.0,30.26,NW,319,0.0,0.0,85,0.00,,,0.00,Wunderground v.1.15,2013-01-24 13:35:00,
2013-01-24 08:38:00,-6.2,-9.5,30.26,NW,319,0.0,0.0,85,0.00,,,0.00,Wunderground v.1.15,2013-01-24 13:38:00,
2013-01-24 08:40:00,-5.7,-9.0,30.26,WNW,300,0.0,1.0,85,0.00,,,0.00,Wunderground v.1.15,2013-01-24 13:40:00,
2013-01-24 08:42:00,-5.3,-8.6,30.26,WNW,300,0.0,0.0,85,0.00,,,0.00,Wunderground v.1.15,2013-01-24 13:42:00,
2013-01-24 08:43:00,-5.1,-8.5,30.26,WNW,300,0.0,0.0,85,0.00,,,0.00,Wunderground v.1.15,2013-01-24 13:43:00,
2013-01-24 08:46:00,-4.5,-7.9,30.26,NW,311,0.0,2.0,85,0.00,,,0.00,Wunderground v.1.15,2013-01-24 13:46:00,
2013-01-24 08:48:00,-4.0,-7.4,30.26,NW,311,0.0,2.0,85,0.00,,,0.00,Wunderground v.1.15,2013-01-24 13:48:00,
2013-01-24 08:49:00,-3.7,-7.3,30.26,NW,307,1.0,2.0,84,0.00,,,0.00,Wunderground v.1.15,2013-01-24 13:49:00,
2013-01-24 08:51:00,-3.4,-7.0,30.26,NW,307,1.0,2.0,84,0.00,,,0.00,Wunderground v.1.15,2013-01-24 13:51:00,
2013-01-24 08:53:00,-3.1,-7.0,30.26,NW,307,0.0,0.0,83,0.00,,,0.00,Wunderground v.1.15,2013-01-24 13:53:00,
2013-01-24 08:54:00,-2.8,-6.7,30.26,West,272,2.0,2.0,83,0.00,,,0.00,Wunderground v.1.15,2013-01-24 13:54:00,
2013-01-24 08:57:00,-2.3,-6.4,30.26,WNW,286,0.0,2.0,82,0.00,,,0.00,Wunderground v.1.15,2013-01-24 13:57:00,
2013-01-24 08:59:00,-2.1,-6.5,30.26,West,264,1.0,3.0,81,0.00,,,0.00,Wunderground v.1.15,2013-01-24 13:59:00,
2013-01-24 09:00:00,-2.0,-6.4,30.26,West,264,1.0,3.0,81,0.00,,,0.00,Wunderground v.1.15,2013-01-24 14:00:00,
2013-01-24 09:04:00,-1.5,-6.4,30.26,WNW,296,0.0,2.0,79,0.00,,,0.00,Wunderground v.1.15,2013-01-24 14:04:00,
2013-01-24 09:06:00,-1.3,-6.2,30.27,WNW,296,0.0,2.0,79,0.00,,,0.00,Wunderground v.1.15,2013-01-24 14:06:00,
2013-01-24 09:08:00,-1.1,-6.0,30.27,WNW,284,0.0,2.0,79,0.00,,,0.00,Wunderground v.1.15,2013-01-24 14:08:00,
2013-01-24 09:10:00,-1.1,-6.3,30.27,West,259,1.0,2.0,78,0.00,,,0.00,Wunderground v.1.15,2013-01-24 14:10:00,
2013-01-24 09:11:00,-0.9,-6.1,30.27,SW,236,0.0,2.0,78,0.00,,,0.00,Wunderground v.1.15,2013-01-24 14:11:00,
2013-01-24 09:15:00,-0.5,-6.0,30.27,NW,305,0.0,4.0,77,0.00,,,0.00,Wunderground v.1.15,2013-01-24 14:15:00,
2013-01-24 09:16:00,-0.4,-5.9,30.27,WNW,302,0.0,4.0,77,0.00,,,0.00,Wunderground v.1.15,2013-01-24 14:16:00,
2013-01-24 09:22:00,0.0,-5.8,30.27,West,270,4.0,4.0,76,0.00,,,0.00,Wunderground v.1.15,2013-01-24 14:22:00,
2013-01-24 09:23:00,0.1,-5.7,30.27,WNW,298,3.0,4.0,76,0.00,,,0.00,Wunderground v.1.15,2013-01-24 14:23:00,
2013-01-24 09:27:00,0.3,-5.5,30.27,WNW,302,1.0,4.0,76,0.00,,,0.00,Wunderground v.1.15,2013-01-24 14:27:00,
2013-01-24 09:28:00,0.4,-5.4,30.27,WNW,286,2.0,4.0,76,0.00,,,0.00,Wunderground v.1.15,2013-01-24 14:28:00,
2013-01-24 09:32:00,0.6,-5.5,30.27,NE,37,1.0,2.0,75,0.00,,,0.00,Wunderground v.1.15,2013-01-24 14:32:00,
2013-01-24 09:33:00,0.7,-5.4,30.27,NW,316,0.0,2.0,75,0.00,,,0.00,Wunderground v.1.15,2013-01-24 14:33:00,
2013-01-24 09:34:00,0.8,-5.3,30.27,SW,233,0.0,2.0,75,0.00,,,0.00,Wunderground v.1.15,2013-01-24 14:34:00,
2013-01-24 09:37:00,1.1,-5.0,30.27,SW,233,0.0,2.0,75,0.00,,,0.00,Wunderground v.1.15,2013-01-24 14:37:00,
2013-01-24 09:38:00,1.3,-4.8,30.27,SW,233,0.0,2.0,75,0.00,,,0.00,Wunderground v.1.15,2013-01-24 14:38:00,
2013-01-24 09:40:00,1.5,-4.6,30.27,West,281,0.0,2.0,75,0.00,,,0.00,Wunderground v.1.15,2013-01-24 14:40:00,
2013-01-24 09:41:00,1.7,-4.4,30.27,West,281,0.0,2.0,75,0.00,,,0.00,Wunderground v.1.15,2013-01-24 14:41:00,
2013-01-24 09:42:00,1.8,-4.3,30.27,West,281,1.0,3.0,75,0.00,,,0.00,Wunderground v.1.15,2013-01-24 14:42:00,
2013-01-24 09:45:00,1.9,-4.5,30.27,West,272,2.0,3.0,74,0.00,,,0.00,Wunderground v.1.15,2013-01-24 14:45:00,
2013-01-24 09:46:00,1.9,-4.5,30.27,West,272,0.0,3.0,74,0.00,,,0.00,Wunderground v.1.15,2013-01-24 14:46:00,
2013-01-24 09:48:00,2.0,-4.4,30.28,NW,319,0.0,4.0,74,0.00,,,0.00,Wunderground v.1.15,2013-01-24 14:48:00,
2013-01-24 09:50:00,2.2,-4.5,30.28,NW,323,1.0,4.0,73,0.00,,,0.00,Wunderground v.1.15,2013-01-24 14:50:00,
2013-01-24 09:51:00,2.2,-4.5,30.28,WNW,301,2.0,4.0,73,0.00,,,0.00,Wunderground v.1.15,2013-01-24 14:51:00,
2013-01-24 09:53:00,2.3,-4.4,30.28,WNW,287,0.0,2.0,73,0.00,,,0.00,Wunderground v.1.15,2013-01-24 14:53:00,
2013-01-24 09:55:00,2.5,-4.2,30.28,NW,319,2.0,4.0,73,0.00,,,0.00,Wunderground v.1.15,2013-01-24 14:55:00,
2013-01-24 09:57:00,2.7,-4.3,30.28,West,274,3.0,4.0,72,0.00,,,0.00,Wunderground v.1.15,2013-01-24 14:57:00,
2013-01-24 09:58:00,2.6,-4.4,30.28,West,260,2.0,4.0,72,0.00,,,0.00,Wunderground v.1.15,2013-01-24 14:58:00,
2013-01-24 10:00:00,2.6,-4.7,30.28,NNE,25,0.0,4.0,71,0.00,,,0.00,Wunderground v.1.15,2013-01-24 15:00:00,
2013-01-24 10:01:00,2.6,-4.7,30.28,NW,311,4.0,4.0,71,0.00,,,0.00,Wunderground v.1.15,2013-01-24 15:01:00,
2013-01-24 10:04:00,2.7,-4.3,30.28,NW,309,1.0,3.0,72,0.00,,,0.00,Wunderground v.1.15,2013-01-24 15:04:00,
2013-01-24 10:05:00,2.8,-4.5,30.28,West,273,0.0,3.0,71,0.00,,,0.00,Wunderground v.1.15,2013-01-24 15:05:00,
2013-01-24 10:06:00,2.8,-4.5,30.28,WNW,284,0.0,6.0,71,0.00,,,0.00,Wunderground v.1.15,2013-01-24 15:06:00,
2013-01-24 10:08:00,2.9,-4.4,30.28,WSW,254,1.0,6.0,71,0.00,,,0.00,Wunderground v.1.15,2013-01-24 15:08:00,
2013-01-24 10:09:00,2.9,-4.4,30.28,NNE,28,1.0,6.0,71,0.00,,,0.00,Wunderground v.1.15,2013-01-24 15:09:00,
2013-01-24 10:10:00,3.0,-4.3,30.28,NNW,344,0.0,6.0,71,0.00,,,0.00,Wunderground v.1.15,2013-01-24 15:10:00,
2013-01-24 10:11:00,3.2,-4.1,30.28,West,279,3.0,6.0,71,0.00,,,0.00,Wunderground v.1.15,2013-01-24 15:11:00,
2013-01-24 10:15:00,3.3,-4.3,30.28,WNW,285,1.0,4.0,70,0.00,,,0.00,Wunderground v.1.15,2013-01-24 15:15:00,
2013-01-24 10:16:00,3.4,-4.2,30.28,WNW,302,0.0,4.0,70,0.00,,,0.00,Wunderground v.1.15,2013-01-24 15:16:00,
2013-01-24 10:17:00,3.6,-4.0,30.28,West,273,2.0,4.0,70,0.00,,,0.00,Wunderground v.1.15,2013-01-24 15:17:00,
2013-01-24 10:19:00,3.7,-3.9,30.28,West,273,1.0,4.0,70,0.00,,,0.00,Wunderground v.1.15,2013-01-24 15:19:00,
2013-01-24 10:22:00,3.8,-3.8,30.28,WNW,290,3.0,3.0,70,0.00,,,0.00,Wunderground v.1.15,2013-01-24 15:22:00,
2013-01-24 10:23:00,3.8,-3.8,30.28,West,264,5.0,5.0,70,0.00,,,0.00,Wunderground v.1.15,2013-01-24 15:23:00,
2013-01-24 10:24:00,3.8,-3.8,30.28,West,262,0.0,5.0,70,0.00,,,0.00,Wunderground v.1.15,2013-01-24 15:24:00,
2013-01-24 10:27:00,4.1,-3.8,30.28,WSW,251,2.0,5.0,69,0.00,,,0.00,Wunderground v.1.15,2013-01-24 15:27:00,
2013-01-24 10:28:00,4.2,-3.7,30.28,NW,318,3.0,5.0,69,0.00,,,0.00,Wunderground v.1.15,2013-01-24 15:28:00,
2013-01-24 10:29:00,4.2,-3.7,30.28,WNW,290,2.0,5.0,69,0.00,,,0.00,Wunderground v.1.15,2013-01-24 15:29:00,
2013-01-24 10:34:00,4.3,-4.2,30.28,West,280,6.0,6.0,67,0.00,,,0.00,Wunderground v.1.15,2013-01-24 15:34:00,
2013-01-24 10:35:00,4.3,-4.2,30.28,WNW,290,2.0,6.0,67,0.00,,,0.00,Wunderground v.1.15,2013-01-24 15:35:00,
2013-01-24 10:38:00,4.1,-4.8,30.28,WNW,299,2.0,7.0,66,0.00,,,0.00,Wunderground v.1.15,2013-01-24 15:38:00,
2013-01-24 10:39:00,4.2,-4.7,30.28,West,278,5.0,7.0,66,0.00,,,0.00,Wunderground v.1.15,2013-01-24 15:39:00,
2013-01-24 10:40:00,4.2,-4.7,30.28,WNW,284,4.0,7.0,66,0.00,,,0.00,Wunderground v.1.15,2013-01-24 15:40:00,
2013-01-24 10:41:00,4.2,-4.7,30.28,NNW,327,4.0,7.0,66,0.00,,,0.00,Wunderground v.1.15,2013-01-24 15:41:00,
2013-01-24 10:44:00,4.4,-4.5,30.28,West,281,2.0,4.0,66,0.00,,,0.00,Wunderground v.1.15,2013-01-24 15:44:00,
2013-01-24 10:45:00,4.4,-4.5,30.28,NW,306,1.0,4.0,66,0.00,,,0.00,Wunderground v.1.15,2013-01-24 15:45:00,
2013-01-24 10:46:00,4.5,-4.4,30.28,West,275,0.0,4.0,66,0.00,,,0.00,Wunderground v.1.15,2013-01-24 15:46:00,
2013-01-24 10:48:00,4.7,-4.2,30.28,SSW,201,2.0,4.0,66,0.00,,,0.00,Wunderground v.1.15,2013-01-24 15:48:00,
2013-01-24 10:49:00,4.7,-4.2,30.28,WNW,295,5.0,5.0,66,0.00,,,0.00,Wunderground v.1.15,2013-01-24 15:49:00,
2013-01-24 10:50:00,4.8,-4.4,30.28,WNW,284,4.0,7.0,65,0.00,,,0.00,Wunderground v.1.15,2013-01-24 15:50:00,
2013-01-24 10:54:00,4.9,-4.3,30.28,WNW,288,3.0,4.0,65,0.00,,,0.00,Wunderground v.1.15,2013-01-24 15:54:00,
2013-01-24 10:55:00,4.9,-4.3,30.28,West,277,3.0,4.0,65,0.00,,,0.00,Wunderground v.1.15,2013-01-24 15:55:00,
2013-01-24 10:56:00,5.0,-4.2,30.28,West,276,0.0,6.0,65,0.00,,,0.00,Wunderground v.1.15,2013-01-24 15:56:00,
2013-01-24 11:00:00,5.4,-3.8,30.28,WNW,302,2.0,8.0,65,0.00,,,0.00,Wunderground v.1.15,2013-01-24 16:00:00,
2013-01-24 11:01:00,5.5,-3.7,30.28,WNW,298,1.0,8.0,65,0.00,,,0.00,Wunderground v.1.15,2013-01-24 16:01:00,
2013-01-24 11:02:00,5.6,-3.6,30.28,NE,49,3.0,3.0,65,0.00,,,0.00,Wunderground v.1.15,2013-01-24 16:02:00,
2013-01-24 11:03:00,5.8,-3.4,30.28,West,280,1.0,4.0,65,0.00,,,0.00,Wunderground v.1.15,2013-01-24 16:03:00,
2013-01-24 11:06:00,5.9,-4.0,30.28,WNW,303,2.0,4.0,63,0.00,,,0.00,Wunderground v.1.15,2013-01-24 16:06:00,
2013-01-24 11:07:00,5.9,-4.0,30.27,WSW,257,0.0,4.0,63,0.00,,,0.00,Wunderground v.1.15,2013-01-24 16:07:00,
2013-01-24 11:08:00,5.9,-4.3,30.28,West,269,2.0,4.0,62,0.00,,,0.00,Wunderground v.1.15,2013-01-24 16:08:00,
2013-01-24 11:11:00,6.1,-3.8,30.28,West,279,5.0,5.0,63,0.00,,,0.00,Wunderground v.1.15,2013-01-24 16:11:00,
2013-01-24 11:12:00,6.1,-4.1,30.28,West,281,7.0,7.0,62,0.00,,,0.00,Wunderground v.1.15,2013-01-24 16:12:00,
2013-01-24 11:13:00,6.1,-4.1,30.28,WNW,293,3.0,7.0,62,0.00,,,0.00,Wunderground v.1.15,2013-01-24 16:13:00,
2013-01-24 11:15:00,6.2,-4.1,30.28,NNW,344,0.0,7.0,62,0.00,,,0.00,Wunderground v.1.15,2013-01-24 16:15:00,
2013-01-24 11:17:00,6.4,-3.9,30.28,NW,317,1.0,7.0,62,0.00,,,0.00,Wunderground v.1.15,2013-01-24 16:17:00,
2013-01-24 11:18:00,6.5,-4.1,30.28,NW,314,4.0,7.0,61,0.00,,,0.00,Wunderground v.1.15,2013-01-24 16:18:00,
2013-01-24 11:20:00,6.6,-4.0,30.28,WNW,284,4.0,7.0,61,0.00,,,0.00,Wunderground v.1.15,2013-01-24 16:20:00,
2013-01-24 11:21:00,6.7,-3.9,30.28,WNW,285,2.0,7.0,61,0.00,,,0.00,Wunderground v.1.15,2013-01-24 16:21:00,
2013-01-24 11:22:00,6.8,-3.8,30.28,West,263,3.0,5.0,61,0.00,,,0.00,Wunderground v.1.15,2013-01-24 16:22:00,
2013-01-24 11:25:00,6.9,-4.1,30.28,WNW,292,3.0,5.0,60,0.00,,,0.00,Wunderground v.1.15,2013-01-24 16:25:00,
2013-01-24 11:26:00,6.9,-4.1,30.28,WNW,302,2.0,5.0,60,0.00,,,0.00,Wunderground v.1.15,2013-01-24 16:26:00,
2013-01-24 11:27:00,7.1,-3.9,30.28,North,360,6.0,6.0,60,0.00,,,0.00,Wunderground v.1.15,2013-01-24 16:27:00,
2013-01-24 11:28:00,7.2,-3.8,30.28,NNW,347,0.0,6.0,60,0.00,,,0.00,Wunderground v.1.15,2013-01-24 16:28:00,
2013-01-24 11:30:00,7.3,-4.0,30.28,WNW,284,3.0,6.0,59,0.00,,,0.00,Wunderground v.1.15,2013-01-24 16:30:00,
2013-01-24 11:31:00,7.3,-4.0,30.28,WSW,246,4.0,6.0,59,0.00,,,0.00,Wunderground v.1.15,2013-01-24 16:31:00,
2013-01-24 11:33:00,7.1,-4.6,30.27,WNW,298,2.0,7.0,58,0.00,,,0.00,Wunderground v.1.15,2013-01-24 16:33:00,
2013-01-24 11:36:00,7.1,-4.2,30.28,NW,309,3.0,7.0,59,0.00,,,0.00,Wunderground v.1.15,2013-01-24 16:36:00,
2013-01-24 11:39:00,7.2,-4.1,30.28,West,277,4.0,7.0,59,0.00,,,0.00,Wunderground v.1.15,2013-01-24 16:39:00,
2013-01-24 11:40:00,7.2,-4.1,30.28,WSW,246,0.0,7.0,59,0.00,,,0.00,Wunderground v.1.15,2013-01-24 16:40:00,
2013-01-24 11:41:00,7.4,-4.0,30.28,WNW,294,2.0,3.0,59,0.00,,,0.00,Wunderground v.1.15,2013-01-24 16:41:00,
2013-01-24 11:42:00,7.4,-4.0,30.28,West,271,4.0,4.0,59,0.00,,,0.00,Wunderground v.1.15,2013-01-24 16:42:00,
2013-01-24 11:45:00,7.8,-3.6,30.28,WSW,257,5.0,5.0,59,0.00,,,0.00,Wunderground v.1.15,2013-01-24 16:45:00,
2013-01-24 11:46:00,7.8,-3.9,30.28,WSW,256,4.0,6.0,58,0.00,,,0.00,Wunderground v.1.15,2013-01-24 16:46:00,
2013-01-24 11:47:00,7.7,-4.0,30.28,NW,314,6.0,6.0,58,0.00,,,0.00,Wunderground v.1.15,2013-01-24 16:47:00,
2013-01-24 11:51:00,8.0,-3.4,30.27,West,273,4.0,6.0,59,0.00,,,0.00,Wunderground v.1.15,2013-01-24 16:51:00,
2013-01-24 11:53:00,8.0,-3.4,30.27,West,271,0.0,4.0,59,0.00,,,0.00,Wunderground v.1.15,2013-01-24 16:53:00,
2013-01-24 11:54:00,8.1,-3.6,30.27,WNW,286,1.0,4.0,58,0.00,,,0.00,Wunderground v.1.15,2013-01-24 16:54:00,
2013-01-24 11:57:00,8.5,-3.3,30.27,WSW,246,1.0,6.0,58,0.00,,,0.00,Wunderground v.1.15,2013-01-24 16:57:00,
2013-01-24 11:58:00,8.5,-3.3,30.27,NNW,330,1.0,6.0,58,0.00,,,0.00,Wunderground v.1.15,2013-01-24 16:58:00,
2013-01-24 12:00:00,8.7,-3.1,30.27,West,259,4.0,6.0,58,0.00,,,0.00,Wunderground v.1.15,2013-01-24 17:00:00,
2013-01-24 12:03:00,9.0,-3.5,30.26,WNW,292,4.0,6.0,56,0.00,,,0.00,Wunderground v.1.15,2013-01-24 17:03:00,
2013-01-24 12:04:00,9.0,-3.5,30.26,West,275,3.0,6.0,56,0.00,,,0.00,Wunderground v.1.15,2013-01-24 17:04:00,
2013-01-24 12:05:00,9.1,-3.4,30.26,ENE,57,1.0,6.0,56,0.00,,,0.00,Wunderground v.1.15,2013-01-24 17:05:00,
2013-01-24 12:08:00,9.1,-3.8,30.26,WNW,289,0.0,6.0,55,0.00,,,0.00,Wunderground v.1.15,2013-01-24 17:08:00,
2013-01-24 12:10:00,9.0,-3.9,30.27,NW,306,0.0,6.0,55,0.00,,,0.00,Wunderground v.1.15,2013-01-24 17:10:00,
2013-01-24 12:11:00,9.1,-3.8,30.27,WSW,240,6.0,6.0,55,0.00,,,0.00,Wunderground v.1.15,2013-01-24 17:11:00,
2013-01-24 12:14:00,9.2,-3.7,30.27,West,273,2.0,3.0,55,0.00,,,0.00,Wunderground v.1.15,2013-01-24 17:14:00,
2013-01-24 12:15:00,9.3,-3.6,30.27,West,277,0.0,3.0,55,0.00,,,0.00,Wunderground v.1.15,2013-01-24 17:15:00,
2013-01-24 12:16:00,9.4,-3.5,30.27,West,277,1.0,3.0,55,0.00,,,0.00,Wunderground v.1.15,2013-01-24 17:16:00,
2013-01-24 12:18:00,9.5,-3.4,30.27,WNW,290,1.0,7.0,55,0.00,,,0.00,Wunderground v.1.15,2013-01-24 17:18:00,
2013-01-24 12:20:00,9.6,-3.0,30.27,West,259,5.0,7.0,56,0.00,,,0.00,Wunderground v.1.15,2013-01-24 17:20:00,
2013-01-24 12:21:00,9.7,-3.3,30.27,WNW,287,3.0,11.0,55,0.00,,,0.00,Wunderground v.1.15,2013-01-24 17:21:00,
2013-01-24 12:22:00,9.7,-3.3,30.27,West,265,1.0,2.0,55,0.00,,,0.00,Wunderground v.1.15,2013-01-24 17:22:00,
2013-01-24 12:23:00,9.7,-3.3,30.27,WNW,294,4.0,6.0,55,0.00,,,0.00,Wunderground v.1.15,2013-01-24 17:23:00,
2013-01-24 12:25:00,9.8,-3.5,30.27,West,275,3.0,6.0,54,0.00,,,0.00,Wunderground v.1.15,2013-01-24 17:25:00,
2013-01-24 12:27:00,9.8,-3.5,30.27,NNW,339,1.0,8.0,54,0.00,,,0.00,Wunderground v.1.15,2013-01-24 17:27:00,
2013-01-24 12:29:00,9.8,-3.9,30.27,NW,306,2.0,8.0,53,0.00,,,0.00,Wunderground v.1.15,2013-01-24 17:29:00,
2013-01-24 12:30:00,9.8,-3.9,30.27,WNW,288,1.0,8.0,53,0.00,,,0.00,Wunderground v.1.15,2013-01-24 17:30:00,
2013-01-24 12:31:00,9.9,-3.5,30.26,NNW,331,0.0,8.0,54,0.00,,,0.00,Wunderground v.1.15,2013-01-24 17:31:00,
2013-01-24 12:33:00,10.0,-3.8,30.26,West,259,4.0,10.0,53,0.00,,,0.00,Wunderground v.1.15,2013-01-24 17:33:00,
2013-01-24 12:34:00,10.0,-3.4,30.26,West,259,6.0,10.0,54,0.00,,,0.00,Wunderground v.1.15,2013-01-24 17:34:00,
2013-01-24 12:36:00,10.0,-3.8,30.26,NW,320,9.0,10.0,53,0.00,,,0.00,Wunderground v.1.15,2013-01-24 17:36:00,
2013-01-24 12:38:00,10.0,-3.4,30.27,West,276,1.0,10.0,54,0.00,,,0.00,Wunderground v.1.15,2013-01-24 17:38:00,
2013-01-24 12:41:00,10.1,-3.7,30.26,WNW,284,2.0,10.0,53,0.00,,,0.00,Wunderground v.1.15,2013-01-24 17:41:00,
2013-01-24 12:42:00,10.2,-3.6,30.26,West,269,4.0,4.0,53,0.00,,,0.00,Wunderground v.1.15,2013-01-24 17:42:00,
2013-01-24 12:43:00,10.2,-3.6,30.26,West,264,3.0,4.0,53,0.00,,,0.00,Wunderground v.1.15,2013-01-24 17:43:00,
2013-01-24 12:44:00,10.3,-3.5,30.27,West,281,5.0,5.0,53,0.00,,,0.00,Wunderground v.1.15,2013-01-24 17:44:00,
2013-01-24 12:46:00,9.9,-4.2,30.26,NW,304,9.0,10.0,52,0.00,,,0.00,Wunderground v.1.15,2013-01-24 17:46:00,
2013-01-24 12:47:00,9.7,-4.4,30.26,WSW,244,6.0,10.0,52,0.00,,,0.00,Wunderground v.1.15,2013-01-24 17:47:00,
2013-01-24 12:49:00,9.7,-4.4,30.26,North,350,4.0,10.0,52,0.00,,,0.00,Wunderground v.1.15,2013-01-24 17:49:00,
2013-01-24 12:52:00,9.7,-4.0,30.26,NW,308,1.0,5.0,53,0.00,,,0.00,Wunderground v.1.15,2013-01-24 17:52:00,
2013-01-24 12:54:00,9.9,-3.5,30.26,West,275,1.0,5.0,54,0.00,,,0.00,Wunderground v.1.15,2013-01-24 17:54:00,
2013-01-24 12:55:00,10.0,-3.4,30.26,West,263,6.0,6.0,54,0.00,,,0.00,Wunderground v.1.15,2013-01-24 17:55:00,
2013-01-24 12:57:00,10.5,-2.9,30.26,North,360,1.0,6.0,54,0.00,,,0.00,Wunderground v.1.15,2013-01-24 17:57:00,
2013-01-24 13:00:00,10.7,-2.7,30.26,West,263,4.0,7.0,54,0.00,,,0.00,Wunderground v.1.15,2013-01-24 18:00:00,
2013-01-24 13:01:00,10.6,-2.8,30.26,West,279,4.0,7.0,54,0.00,,,0.00,Wunderground v.1.15,2013-01-24 18:01:00,
2013-01-24 13:04:00,10.6,-2.8,30.26,NW,306,1.0,5.0,54,0.00,,,0.00,Wunderground v.1.15,2013-01-24 18:04:00,
2013-01-24 13:05:00,10.7,-2.7,30.26,West,262,3.0,5.0,54,0.00,,,0.00,Wunderground v.1.15,2013-01-24 18:05:00,
2013-01-24 13:06:00,10.9,-2.1,30.26,WNW,287,8.0,8.0,55,0.00,,,0.00,Wunderground v.1.15,2013-01-24 18:06:00,
2013-01-24 13:07:00,11.0,-2.0,30.26,NW,317,4.0,8.0,55,0.00,,,0.00,Wunderground v.1.15,2013-01-24 18:07:00,
2013-01-24 13:09:00,10.8,-3.0,30.26,West,274,6.0,12.0,53,0.00,,,0.00,Wunderground v.1.15,2013-01-24 18:09:00,
2013-01-24 13:10:00,10.6,-3.6,30.26,West,281,4.0,12.0,52,0.00,,,0.00,Wunderground v.1.15,2013-01-24 18:10:00,
2013-01-24 13:12:00,10.4,-3.8,30.26,NNW,330,3.0,4.0,52,0.00,,,0.00,Wunderground v.1.15,2013-01-24 18:12:00,
2013-01-24 13:13:00,10.4,-3.8,30.26,North,360,3.0,4.0,52,0.00,,,0.00,Wunderground v.1.15,2013-01-24 18:13:00,
2013-01-24 13:15:00,10.6,-3.2,30.26,WNW,298,2.0,7.0,53,0.00,,,0.00,Wunderground v.1.15,2013-01-24 18:15:00,
2013-01-24 13:17:00,10.7,-3.5,30.26,NNE,28,3.0,8.0,52,0.00,,,0.00,Wunderground v.1.15,2013-01-24 18:17:00,
2013-01-24 13:18:00,10.7,-3.5,30.26,WSW,248,7.0,8.0,52,0.00,,,0.00,Wunderground v.1.15,2013-01-24 18:18:00,
2013-01-24 13:19:00,10.8,-3.4,30.26,NW,319,0.0,8.0,52,0.00,,,0.00,Wunderground v.1.15,2013-01-24 18:19:00,
2013-01-24 13:20:00,10.8,-3.4,30.26,West,281,7.0,8.0,52,0.00,,,0.00,Wunderground v.1.15,2013-01-24 18:20:00,
2013-01-24 13:22:00,10.7,-3.5,30.26,SW,234,5.0,5.0,52,0.00,,,0.00,Wunderground v.1.15,2013-01-24 18:22:00,
2013-01-24 13:24:00,10.6,-3.2,30.25,West,279,5.0,10.0,53,0.00,,,0.00,Wunderground v.1.15,2013-01-24 18:24:00,
2013-01-24 13:26:00,10.6,-3.6,30.25,West,271,4.0,10.0,52,0.00,,,0.00,Wunderground v.1.15,2013-01-24 18:26:00,
2013-01-24 13:29:00,10.7,-3.1,30.26,West,274,12.0,12.0,53,0.00,,,0.00,Wunderground v.1.15,2013-01-24 18:29:00,
2013-01-24 13:30:00,10.7,-3.1,30.26,WSW,252,3.0,12.0,53,0.00,,,0.00,Wunderground v.1.15,2013-01-24 18:30:00,
2013-01-24 13:32:00,10.8,-3.0,30.26,WNW,287,8.0,8.0,53,0.00,,,0.00,Wunderground v.1.15,2013-01-24 18:32:00,
2013-01-24 13:33:00,10.8,-3.0,30.26,West,263,4.0,8.0,53,0.00,,,0.00,Wunderground v.1.15,2013-01-24 18:33:00,
2013-01-24 13:34:00,10.9,-2.9,30.26,West,273,5.0,8.0,53,0.00,,,0.00,Wunderground v.1.15,2013-01-24 18:34:00,
2013-01-24 13:37:00,11.0,-2.8,30.26,WSW,250,4.0,8.0,53,0.00,,,0.00,Wunderground v.1.15,2013-01-24 18:37:00,
2013-01-24 13:38:00,11.0,-2.8,30.26,WNW,289,5.0,8.0,53,0.00,,,0.00,Wunderground v.1.15,2013-01-24 18:38:00,
2013-01-24 13:41:00,11.1,-2.7,30.25,West,266,9.0,9.0,53,0.00,,,0.00,Wunderground v.1.15,2013-01-24 18:41:00,
2013-01-24 13:43:00,11.2,-2.6,30.25,WNW,282,5.0,7.0,53,0.00,,,0.00,Wunderground v.1.15,2013-01-24 18:43:00,
2013-01-24 13:44:00,11.2,-2.6,30.25,West,268,9.0,9.0,53,0.00,,,0.00,Wunderground v.1.15,2013-01-24 18:44:00,
2013-01-24 13:45:00,11.3,-2.5,30.25,SSW,194,1.0,9.0,53,0.00,,,0.00,Wunderground v.1.15,2013-01-24 18:45:00,
2013-01-24 13:46:00,11.3,-2.5,30.25,West,270,2.0,9.0,53,0.00,,,0.00,Wunderground v.1.15,2013-01-24 18:46:00,
2013-01-24 13:49:00,11.3,-2.9,30.25,SSW,202,2.0,10.0,52,0.00,,,0.00,Wunderground v.1.15,2013-01-24 18:49:00,
2013-01-24 13:50:00,11.2,-3.0,30.25,West,271,3.0,10.0,52,0.00,,,0.00,Wunderground v.1.15,2013-01-24 18:50:00,
2013-01-24 13:51:00,11.2,-3.0,30.25,WNW,288,4.0,10.0,52,0.00,,,0.00,Wunderground v.1.15,2013-01-24 18:51:00,
2013-01-24 13:54:00,11.3,-2.5,30.25,WNW,290,5.0,8.0,53,0.00,,,0.00,Wunderground v.1.15,2013-01-24 18:54:00,
2013-01-24 13:55:00,11.4,-2.4,30.25,WSW,246,6.0,8.0,53,0.00,,,0.00,Wunderground v.1.15,2013-01-24 18:55:00,
2013-01-24 13:56:00,11.4,-2.4,30.25,West,277,10.0,10.0,53,0.00,,,0.00,Wunderground v.1.15,2013-01-24 18:56:00,
2013-01-24 13:57:00,11.4,-2.8,30.25,West,275,6.0,10.0,52,0.00,,,0.00,Wunderground v.1.15,2013-01-24 18:57:00,
2013-01-24 14:00:00,11.3,-2.9,30.25,West,275,8.0,10.0,52,0.00,,,0.00,Wunderground v.1.15,2013-01-24 19:00:00,
2013-01-24 14:02:00,11.2,-3.4,30.25,NNW,329,4.0,6.0,51,0.00,,,0.00,Wunderground v.1.15,2013-01-24 19:02:00,
2013-01-24 14:03:00,11.2,-3.4,30.25,NW,324,2.0,6.0,51,0.00,,,0.00,Wunderground v.1.15,2013-01-24 19:03:00,
2013-01-24 14:06:00,11.6,-2.7,30.25,West,265,3.0,7.0,52,0.00,,,0.00,Wunderground v.1.15,2013-01-24 19:06:00,
2013-01-24 14:07:00,11.7,-2.6,30.25,NW,317,10.0,10.0,52,0.00,,,0.00,Wunderground v.1.15,2013-01-24 19:07:00,
2013-01-24 14:08:00,11.7,-2.6,30.25,West,277,5.0,10.0,52,0.00,,,0.00,Wunderground v.1.15,2013-01-24 19:08:00,
2013-01-24 14:09:00,11.8,-2.9,30.25,West,278,6.0,10.0,51,0.00,,,0.00,Wunderground v.1.15,2013-01-24 19:09:00,
2013-01-24 14:11:00,11.8,-2.5,30.25,West,273,4.0,10.0,52,0.00,,,0.00,Wunderground v.1.15,2013-01-24 19:11:00,
2013-01-24 14:12:00,11.9,-2.4,30.25,WNW,300,1.0,4.0,52,0.00,,,0.00,Wunderground v.1.15,2013-01-24 19:12:00,
2013-01-24 14:13:00,12.0,-2.3,30.25,NW,305,2.0,4.0,52,0.00,,,0.00,Wunderground v.1.15,2013-01-24 19:13:00,
2013-01-24 14:17:00,12.2,-1.7,30.25,West,273,6.0,7.0,53,0.00,,,0.00,Wunderground v.1.15,2013-01-24 19:17:00,
2013-01-24 14:18:00,12.2,-2.1,30.25,West,271,9.0,9.0,52,0.00,,,0.00,Wunderground v.1.15,2013-01-24 19:18:00,
2013-01-24 14:19:00,12.2,-2.5,30.25,West,278,5.0,15.0,51,0.00,,,0.00,Wunderground v.1.15,2013-01-24 19:19:00,
2013-01-24 14:23:00,11.8,-3.3,30.25,WSW,241,4.0,10.0,50,0.00,,,0.00,Wunderground v.1.15,2013-01-24 19:23:00,
2013-01-24 14:24:00,11.7,-3.4,30.25,West,261,9.0,13.0,50,0.00,,,0.00,Wunderground v.1.15,2013-01-24 19:24:00,
2013-01-24 14:28:00,11.7,-3.0,30.26,West,279,5.0,13.0,51,0.00,,,0.00,Wunderground v.1.15,2013-01-24 19:28:00,
2013-01-24 14:30:00,11.7,-3.0,30.26,WNW,290,4.0,13.0,51,0.00,,,0.00,Wunderground v.1.15,2013-01-24 19:30:00,
2013-01-24 14:31:00,11.7,-3.4,30.26,WNW,292,9.0,13.0,50,0.00,,,0.00,Wunderground v.1.15,2013-01-24 19:31:00,
2013-01-24 14:33:00,11.6,-3.5,30.26,WNW,295,4.0,6.0,50,0.00,,,0.00,Wunderground v.1.15,2013-01-24 19:33:00,
2013-01-24 14:35:00,11.7,-3.0,30.26,WNW,293,3.0,7.0,51,0.00,,,0.00,Wunderground v.1.15,2013-01-24 19:35:00,
2013-01-24 14:37:00,11.9,-2.8,30.26,West,275,2.0,8.0,51,0.00,,,0.00,Wunderground v.1.15,2013-01-24 19:37:00,
2013-01-24 14:38:00,12.0,-2.7,30.26,West,277,1.0,8.0,51,0.00,,,0.00,Wunderground v.1.15,2013-01-24 19:38:00,
2013-01-24 14:42:00,12.0,-3.1,30.26,West,265,3.0,4.0,50,0.00,,,0.00,Wunderground v.1.15,2013-01-24 19:42:00,
2013-01-24 14:43:00,11.9,-3.2,30.26,West,269,3.0,9.0,50,0.00,,,0.00,Wunderground v.1.15,2013-01-24 19:43:00,
2013-01-24 14:44:00,11.9,-3.2,30.26,West,276,5.0,9.0,50,0.00,,,0.00,Wunderground v.1.15,2013-01-24 19:44:00,
2013-01-24 14:48:00,11.9,-3.2,30.27,WNW,302,4.0,9.0,50,0.00,,,0.00,Wunderground v.1.15,2013-01-24 19:48:00,
2013-01-24 14:49:00,11.8,-3.3,30.27,NW,316,6.0,9.0,50,0.00,,,0.00,Wunderground v.1.15,2013-01-24 19:49:00,
2013-01-24 14:50:00,11.8,-3.3,30.27,NW,317,9.0,9.0,50,0.00,,,0.00,Wunderground v.1.15,2013-01-24 19:50:00,
2013-01-24 14:51:00,11.7,-3.4,30.27,West,259,10.0,10.0,50,0.00,,,0.00,Wunderground v.1.15,2013-01-24 19:51:00,
2013-01-24 14:54:00,11.2,-4.3,30.27,WSW,257,7.0,14.0,49,0.00,,,0.00,Wunderground v.1.15,2013-01-24 19:54:00,
2013-01-24 14:55:00,11.2,-4.3,30.27,WNW,302,11.0,14.0,49,0.00,,,0.00,Wunderground v.1.15,2013-01-24 19:55:00,
2013-01-24 14:56:00,11.0,-4.5,30.27,NW,308,7.0,14.0,49,0.00,,,0.00,Wunderground v.1.15,2013-01-24 19:56:00,
2013-01-24 15:00:00,11.1,-3.9,30.27,WSW,247,4.0,14.0,50,0.00,,,0.00,Wunderground v.1.15,2013-01-24 20:00:00,
2013-01-24 15:01:00,11.1,-3.9,30.27,North,355,2.0,14.0,50,0.00,,,0.00,Wunderground v.1.15,2013-01-24 20:01:00,
2013-01-24 15:02:00,11.1,-3.9,30.27,North,355,2.0,6.0,50,0.00,,,0.00,Wunderground v.1.15,2013-01-24 20:02:00,
2013-01-24 15:04:00,11.2,-4.3,30.27,SW,230,0.0,9.0,49,0.00,,,0.00,Wunderground v.1.15,2013-01-24 20:04:00,
2013-01-24 15:06:00,11.1,-4.4,30.27,West,271,6.0,12.0,49,0.00,,,0.00,Wunderground v.1.15,2013-01-24 20:06:00,
2013-01-24 15:07:00,11.0,-4.9,30.27,West,270,10.0,12.0,48,0.00,,,0.00,Wunderground v.1.15,2013-01-24 20:07:00,
2013-01-24 15:08:00,10.8,-5.1,30.27,WSW,257,9.0,12.0,48,0.00,,,0.00,Wunderground v.1.15,2013-01-24 20:08:00,
2013-01-24 15:10:00,10.6,-5.3,30.27,WNW,292,3.0,12.0,48,0.00,,,0.00,Wunderground v.1.15,2013-01-24 20:10:00,
2013-01-24 15:12:00,10.6,-4.8,30.28,WNW,285,5.0,7.0,49,0.00,,,0.00,Wunderground v.1.15,2013-01-24 20:12:00,
2013-01-24 15:14:00,10.7,-4.3,30.27,WNW,302,7.0,9.0,50,0.00,,,0.00,Wunderground v.1.15,2013-01-24 20:14:00,
2013-01-24 15:17:00,10.8,-4.2,30.28,WSW,251,3.0,9.0,50,0.00,,,0.00,Wunderground v.1.15,2013-01-24 20:17:00,
2013-01-24 15:18:00,10.8,-4.2,30.28,WSW,254,4.0,9.0,50,0.00,,,0.00,Wunderground v.1.15,2013-01-24 20:18:00,
2013-01-24 15:21:00,10.6,-4.8,30.28,WNW,296,1.0,13.0,49,0.00,,,0.00,Wunderground v.1.15,2013-01-24 20:21:00,
2013-01-24 15:22:00,10.5,-4.9,30.28,NW,323,11.0,11.0,49,0.00,,,0.00,Wunderground v.1.15,2013-01-24 20:22:00,
2013-01-24 15:23:00,10.3,-5.1,30.28,WNW,284,3.0,11.0,49,0.00,,,0.00,Wunderground v.1.15,2013-01-24 20:23:00,
2013-01-24 15:26:00,10.3,-4.7,30.28,West,280,7.0,11.0,50,0.00,,,0.00,Wunderground v.1.15,2013-01-24 20:26:00,
2013-01-24 15:28:00,10.1,-4.9,30.29,NNW,335,5.0,11.0,50,0.00,,,0.00,Wunderground v.1.15,2013-01-24 20:28:00,
2013-01-24 15:29:00,10.1,-4.9,30.28,North,355,2.0,11.0,50,0.00,,,0.00,Wunderground v.1.15,2013-01-24 20:29:00,
2013-01-24 15:32:00,10.1,-4.5,30.29,WNW,297,4.0,6.0,51,0.00,,,0.00,Wunderground v.1.15,2013-01-24 20:32:00,
2013-01-24 15:34:00,10.1,-4.9,30.29,West,274,5.0,10.0,50,0.00,,,0.00,Wunderground v.1.15,2013-01-24 20:34:00,
2013-01-24 15:38:00,9.8,-5.2,30.29,NNW,327,4.0,10.0,50,0.00,,,0.00,Wunderground v.1.15,2013-01-24 20:38:00,
2013-01-24 15:40:00,9.8,-4.7,30.29,WNW,300,6.0,14.0,51,0.00,,,0.00,Wunderground v.1.15,2013-01-24 20:40:00,
2013-01-24 15:43:00,9.6,-4.9,30.30,WNW,289,2.0,7.0,51,0.00,,,0.00,Wunderground v.1.15,2013-01-24 20:43:00,
2013-01-24 15:44:00,9.6,-4.5,30.30,SSW,213,6.0,7.0,52,0.00,,,0.00,Wunderground v.1.15,2013-01-24 20:44:00,
2013-01-24 15:45:00,9.6,-4.9,30.30,NE,52,3.0,8.0,51,0.00,,,0.00,Wunderground v.1.15,2013-01-24 20:45:00,
2013-01-24 15:46:00,9.6,-4.9,30.30,WSW,241,3.0,8.0,51,0.00,,,0.00,Wunderground v.1.15,2013-01-24 20:46:00,
2013-01-24 15:49:00,9.4,-4.7,30.30,West,275,3.0,8.0,52,0.00,,,0.00,Wunderground v.1.15,2013-01-24 20:49:00,
2013-01-24 15:50:00,9.4,-4.7,30.29,NW,306,11.0,13.0,52,0.00,,,0.00,Wunderground v.1.15,2013-01-24 20:50:00,
2013-01-24 15:51:00,9.2,-4.9,30.30,WSW,256,3.0,13.0,52,0.00,,,0.00,Wunderground v.1.15,2013-01-24 20:51:00,
2013-01-24 15:55:00,9.0,-5.1,30.30,West,265,6.0,9.0,52,0.00,,,0.00,Wunderground v.1.15,2013-01-24 20:55:00,
2013-01-24 15:56:00,8.9,-4.8,30.30,SW,234,12.0,12.0,53,0.00,,,0.00,Wunderground v.1.15,2013-01-24 20:56:00,
2013-01-24 15:57:00,8.8,-5.3,30.30,West,273,7.0,12.0,52,0.00,,,0.00,Wunderground v.1.15,2013-01-24 20:57:00,
2013-01-24 16:00:00,8.7,-5.0,30.29,WNW,302,6.0,12.0,53,0.00,,,0.00,Wunderground v.1.15,2013-01-24 21:00:00,
2013-01-24 16:01:00,8.6,-5.1,30.30,North,360,2.0,12.0,53,0.00,,,0.00,Wunderground v.1.15,2013-01-24 21:01:00,
2013-01-24 16:03:00,8.5,-5.2,30.29,WSW,250,4.0,7.0,53,0.00,,,0.00,Wunderground v.1.15,2013-01-24 21:03:00,
2013-01-24 16:04:00,8.5,-5.2,30.29,NW,320,5.0,7.0,53,0.00,,,0.00,Wunderground v.1.15,2013-01-24 21:04:00,
2013-01-24 16:05:00,8.5,-5.2,30.30,West,280,4.0,10.0,53,0.00,,,0.00,Wunderground v.1.15,2013-01-24 21:05:00,
2013-01-24 16:06:00,8.5,-4.8,30.29,SW,232,2.0,10.0,54,0.00,,,0.00,Wunderground v.1.15,2013-01-24 21:06:00,
2013-01-24 16:10:00,8.5,-4.8,30.30,WSW,252,3.0,10.0,54,0.00,,,0.00,Wunderground v.1.15,2013-01-24 21:10:00,
2013-01-24 16:11:00,8.5,-4.8,30.30,NNW,342,11.0,11.0,54,0.00,,,0.00,Wunderground v.1.15,2013-01-24 21:11:00,
2013-01-24 16:13:00,8.6,-4.7,30.30,West,279,5.0,8.0,54,0.00,,,0.00,Wunderground v.1.15,2013-01-24 21:13:00,
2013-01-24 16:16:00,8.5,-4.8,30.30,West,276,9.0,10.0,54,0.00,,,0.00,Wunderground v.1.15,2013-01-24 21:16:00,
2013-01-24 16:18:00,8.5,-4.4,30.30,NW,325,2.0,12.0,55,0.00,,,0.00,Wunderground v.1.15,2013-01-24 21:18:00,
2013-01-24 16:21:00,8.5,-4.4,30.30,West,276,4.0,12.0,55,0.00,,,0.00,Wunderground v.1.15,2013-01-24 21:21:00,
2013-01-24 16:23:00,8.4,-4.5,30.31,SW,225,6.0,13.0,55,0.00,,,0.00,Wunderground v.1.15,2013-01-24 21:23:00,
2013-01-24 16:24:00,8.3,-4.6,30.31,WNW,292,9.0,13.0,55,0.00,,,0.00,Wunderground v.1.15,2013-01-24 21:24:00,
2013-01-24 16:26:00,8.3,-4.6,30.31,WNW,296,6.0,13.0,55,0.00,,,0.00,Wunderground v.1.15,2013-01-24 21:26:00,
2013-01-24 16:27:00,8.3,-4.2,30.31,West,281,2.0,13.0,56,0.00,,,0.00,Wunderground v.1.15,2013-01-24 21:27:00,
2013-01-24 16:28:00,8.3,-4.2,30.31,West,275,5.0,13.0,56,0.00,,,0.00,Wunderground v.1.15,2013-01-24 21:28:00,
2013-01-24 16:30:00,8.2,-4.3,30.32,SSW,199,6.0,13.0,56,0.00,,,0.00,Wunderground v.1.15,2013-01-24 21:30:00,
2013-01-24 16:31:00,8.2,-4.3,30.31,NNW,335,1.0,13.0,56,0.00,,,0.00,Wunderground v.1.15,2013-01-24 21:31:00,
2013-01-24 16:33:00,8.1,-4.4,30.32,WNW,293,6.0,10.0,56,0.00,,,0.00,Wunderground v.1.15,2013-01-24 21:33:00,
2013-01-24 16:35:00,8.0,-4.1,30.32,West,275,3.0,10.0,57,0.00,,,0.00,Wunderground v.1.15,2013-01-24 21:35:00,
2013-01-24 16:36:00,8.0,-4.1,30.32,West,277,5.0,10.0,57,0.00,,,0.00,Wunderground v.1.15,2013-01-24 21:36:00,
2013-01-24 16:40:00,7.8,-3.9,30.32,West,275,4.0,10.0,58,0.00,,,0.00,Wunderground v.1.15,2013-01-24 21:40:00,
2013-01-24 16:41:00,7.8,-3.9,30.32,SW,227,2.0,10.0,58,0.00,,,0.00,Wunderground v.1.15,2013-01-24 21:41:00,
2013-01-24 16:43:00,7.7,-4.0,30.32,West,277,10.0,10.0,58,0.00,,,0.00,Wunderground v.1.15,2013-01-24 21:43:00,
2013-01-24 16:46:00,7.7,-4.0,30.32,NW,307,4.0,10.0,58,0.00,,,0.00,Wunderground v.1.15,2013-01-24 21:46:00,
2013-01-24 16:47:00,7.6,-3.8,30.32,NNW,344,1.0,10.0,59,0.00,,,0.00,Wunderground v.1.15,2013-01-24 21:47:00,
2013-01-24 16:48:00,7.6,-3.8,30.32,West,277,9.0,10.0,59,0.00,,,0.00,Wunderground v.1.15,2013-01-24 21:48:00,
2013-01-24 16:51:00,7.5,-3.9,30.33,WSW,245,10.0,14.0,59,0.00,,,0.00,Wunderground v.1.15,2013-01-24 21:51:00,
2013-01-24 16:54:00,7.5,-3.9,30.32,West,269,6.0,8.0,59,0.00,,,0.00,Wunderground v.1.15,2013-01-24 21:54:00,
2013-01-24 16:55:00,7.4,-4.0,30.33,WSW,254,4.0,8.0,59,0.00,,,0.00,Wunderground v.1.15,2013-01-24 21:55:00,
2013-01-24 16:57:00,7.4,-3.6,30.33,West,262,3.0,8.0,60,0.00,,,0.00,Wunderground v.1.15,2013-01-24 21:57:00,
2013-01-24 17:00:00,7.3,-3.7,30.33,WNW,288,12.0,12.0,60,0.00,,,0.00,Wunderground v.1.15,2013-01-24 22:00:00,
2013-01-24 17:02:00,7.2,-3.8,30.33,SW,218,0.0,6.0,60,0.00,,,0.00,Wunderground v.1.15,2013-01-24 22:02:00,
2013-01-24 17:03:00,7.2,-3.8,30.33,SW,223,6.0,9.0,60,0.00,,,0.00,Wunderground v.1.15,2013-01-24 22:03:00,
2013-01-24 17:05:00,7.1,-3.9,30.33,West,271,6.0,9.0,60,0.00,,,0.00,Wunderground v.1.15,2013-01-24 22:05:00,
2013-01-24 17:08:00,7.0,-4.0,30.34,WNW,299,3.0,11.0,60,0.00,,,0.00,Wunderground v.1.15,2013-01-24 22:08:00,
2013-01-24 17:09:00,7.0,-4.0,30.33,West,278,7.0,11.0,60,0.00,,,0.00,Wunderground v.1.15,2013-01-24 22:09:00,
2013-01-24 17:11:00,6.9,-4.1,30.34,WNW,294,4.0,12.0,60,0.00,,,0.00,Wunderground v.1.15,2013-01-24 22:11:00,
2013-01-24 17:14:00,6.8,-4.2,30.34,West,277,6.0,10.0,60,0.00,,,0.00,Wunderground v.1.15,2013-01-24 22:14:00,
2013-01-24 17:15:00,6.8,-4.2,30.34,West,273,7.0,16.0,60,0.00,,,0.00,Wunderground v.1.15,2013-01-24 22:15:00,
2013-01-24 17:17:00,6.7,-4.3,30.34,WNW,282,4.0,16.0,60,0.00,,,0.00,Wunderground v.1.15,2013-01-24 22:17:00,
2013-01-24 17:19:00,6.7,-3.9,30.34,WNW,294,2.0,16.0,61,0.00,,,0.00,Wunderground v.1.15,2013-01-24 22:19:00,
2013-01-24 17:22:00,6.6,-4.0,30.34,West,281,2.0,9.0,61,0.00,,,0.00,Wunderground v.1.15,2013-01-24 22:22:00,
2013-01-24 17:23:00,6.6,-4.0,30.34,West,271,3.0,9.0,61,0.00,,,0.00,Wunderground v.1.15,2013-01-24 22:23:00,
2013-01-24 17:24:00,6.6,-4.0,30.34,West,277,2.0,9.0,61,0.00,,,0.00,Wunderground v.1.15,2013-01-24 22:24:00,
2013-01-24 17:26:00,6.5,-4.1,30.35,West,276,10.0,10.0,61,0.00,,,0.00,Wunderground v.1.15,2013-01-24 22:26:00,
2013-01-24 17:28:00,6.4,-4.2,30.35,WNW,294,9.0,10.0,61,0.00,,,0.00,Wunderground v.1.15,2013-01-24 22:28:00,
2013-01-24 17:29:00,6.4,-4.2,30.35,West,273,3.0,10.0,61,0.00,,,0.00,Wunderground v.1.15,2013-01-24 22:29:00,
2013-01-24 17:31:00,6.4,-3.9,30.35,WNW,289,8.0,10.0,62,0.00,,,0.00,Wunderground v.1.15,2013-01-24 22:31:00,
2013-01-24 17:33:00,6.4,-3.9,30.35,WSW,258,5.0,8.0,62,0.00,,,0.00,Wunderground v.1.15,2013-01-24 22:33:00,
2013-01-24 17:35:00,6.3,-4.0,30.35,NNW,337,6.0,11.0,62,0.00,,,0.00,Wunderground v.1.15,2013-01-24 22:35:00,
2013-01-24 17:36:00,6.3,-3.6,30.35,NW,322,3.0,11.0,63,0.00,,,0.00,Wunderground v.1.15,2013-01-24 22:36:00,
2013-01-24 17:37:00,6.3,-4.0,30.35,West,279,7.0,11.0,62,0.00,,,0.00,Wunderground v.1.15,2013-01-24 22:37:00,
2013-01-24 17:40:00,6.3,-3.6,30.35,WNW,293,10.0,11.0,63,0.00,,,0.00,Wunderground v.1.15,2013-01-24 22:40:00,
2013-01-24 17:41:00,6.3,-3.6,30.35,WNW,294,5.0,11.0,63,0.00,,,0.00,Wunderground v.1.15,2013-01-24 22:41:00,
2013-01-24 17:42:00,6.2,-3.7,30.35,WNW,299,2.0,6.0,63,0.00,,,0.00,Wunderground v.1.15,2013-01-24 22:42:00,
2013-01-24 17:45:00,6.2,-3.4,30.35,ESE,107,3.0,9.0,64,0.00,,,0.00,Wunderground v.1.15,2013-01-24 22:45:00,
2013-01-24 17:46:00,6.2,-3.4,30.35,WNW,285,6.0,9.0,64,0.00,,,0.00,Wunderground v.1.15,2013-01-24 22:46:00,
2013-01-24 17:47:00,6.1,-3.5,30.36,West,275,2.0,9.0,64,0.00,,,0.00,Wunderground v.1.15,2013-01-24 22:47:00,
2013-01-24 17:48:00,6.1,-3.5,30.36,WNW,284,3.0,9.0,64,0.00,,,0.00,Wunderground v.1.15,2013-01-24 22:48:00,
2013-01-24 17:52:00,6.0,-3.3,30.36,WNW,301,6.0,8.0,65,0.00,,,0.00,Wunderground v.1.15,2013-01-24 22:52:00,
2013-01-24 17:53:00,6.0,-3.3,30.36,WNW,288,7.0,8.0,65,0.00,,,0.00,Wunderground v.1.15,2013-01-24 22:53:00,
2013-01-24 17:54:00,6.0,-3.3,30.36,West,279,13.0,13.0,65,0.00,,,0.00,Wunderground v.1.15,2013-01-24 22:54:00,
2013-01-24 17:57:00,6.0,-2.9,30.36,West,268,5.0,13.0,66,0.00,,,0.00,Wunderground v.1.15,2013-01-24 22:57:00,
2013-01-24 17:58:00,6.0,-2.9,30.36,NW,306,4.0,13.0,66,0.00,,,0.00,Wunderground v.1.15,2013-01-24 22:58:00,
2013-01-24 18:00:00,6.0,-2.9,30.37,WNW,291,10.0,13.0,66,0.00,,,0.00,Wunderground v.1.15,2013-01-24 23:00:00,
2013-01-24 18:03:00,6.0,-2.9,30.37,WNW,295,9.0,9.0,66,0.00,,,0.00,Wunderground v.1.15,2013-01-24 23:03:00,
2013-01-24 18:04:00,6.0,-2.9,30.37,West,261,5.0,9.0,66,0.00,,,0.00,Wunderground v.1.15,2013-01-24 23:04:00,
2013-01-24 18:05:00,6.0,-2.6,30.37,WNW,291,2.0,9.0,67,0.00,,,0.00,Wunderground v.1.15,2013-01-24 23:05:00,
2013-01-24 18:07:00,6.0,-2.9,30.37,West,261,1.0,9.0,66,0.00,,,0.00,Wunderground v.1.15,2013-01-24 23:07:00,
2013-01-24 18:08:00,5.9,-2.7,30.37,WNW,286,10.0,10.0,67,0.00,,,0.00,Wunderground v.1.15,2013-01-24 23:08:00,
2013-01-24 18:09:00,5.9,-2.7,30.37,WSW,251,4.0,10.0,67,0.00,,,0.00,Wunderground v.1.15,2013-01-24 23:09:00,
2013-01-24 18:10:00,5.9,-2.7,30.37,West,274,7.0,10.0,67,0.00,,,0.00,Wunderground v.1.15,2013-01-24 23:10:00,
2013-01-24 18:14:00,5.9,-2.7,30.37,West,278,4.0,12.0,67,0.00,,,0.00,Wunderground v.1.15,2013-01-24 23:14:00,
2013-01-24 18:15:00,5.9,-2.7,30.37,West,275,1.0,12.0,67,0.00,,,0.00,Wunderground v.1.15,2013-01-24 23:15:00,
2013-01-24 18:16:00,5.9,-2.4,30.37,NW,304,4.0,12.0,68,0.00,,,0.00,Wunderground v.1.15,2013-01-24 23:16:00,
2013-01-24 18:17:00,5.9,-2.4,30.37,WSW,250,2.0,12.0,68,0.00,,,0.00,Wunderground v.1.15,2013-01-24 23:17:00,
2013-01-24 18:20:00,5.8,-2.5,30.37,WNW,286,11.0,13.0,68,0.00,,,0.00,Wunderground v.1.15,2013-01-24 23:20:00,
2013-01-24 18:21:00,5.8,-2.5,30.37,WNW,290,6.0,13.0,68,0.00,,,0.00,Wunderground v.1.15,2013-01-24 23:21:00,
2013-01-24 18:22:00,5.8,-2.5,30.37,West,261,8.0,8.0,68,0.00,,,0.00,Wunderground v.1.15,2013-01-24 23:22:00,
2013-01-24 18:24:00,5.8,-2.5,30.37,West,267,4.0,13.0,68,0.00,,,0.00,Wunderground v.1.15,2013-01-24 23:24:00,
2013-01-24 18:25:00,5.8,-2.5,30.36,WNW,298,7.0,13.0,68,0.00,,,0.00,Wunderground v.1.15,2013-01-24 23:25:00,
2013-01-24 18:26:00,5.8,-2.2,30.37,WNW,286,8.0,13.0,69,0.00,,,0.00,Wunderground v.1.15,2013-01-24 23:26:00,
2013-01-24 18:27:00,5.8,-2.2,30.37,WSW,248,2.0,13.0,69,0.00,,,0.00,Wunderground v.1.15,2013-01-24 23:27:00,
2013-01-24 18:29:00,5.8,-2.2,30.37,West,273,7.0,13.0,69,0.00,,,0.00,Wunderground v.1.15,2013-01-24 23:29:00,
2013-01-24 18:30:00,5.8,-2.2,30.37,WNW,290,4.0,13.0,69,0.00,,,0.00,Wunderground v.1.15,2013-01-24 23:30:00,
2013-01-24 18:31:00,5.8,-2.2,30.37,WSW,244,2.0,6.0,69,0.00,,,0.00,Wunderground v.1.15,2013-01-24 23:31:00,
2013-01-24 18:34:00,5.7,-2.3,30.37,West,277,8.0,10.0,69,0.00,,,0.00,Wunderground v.1.15,2013-01-24 23:34:00,
2013-01-24 18:35:00,5.7,-2.3,30.37,WNW,282,11.0,11.0,69,0.00,,,0.00,Wunderground v.1.15,2013-01-24 23:35:00,
2013-01-24 18:37:00,5.7,-2.3,30.37,West,259,6.0,11.0,69,0.00,,,0.00,Wunderground v.1.15,2013-01-24 23:37:00,
2013-01-24 18:38:00,5.7,-2.3,30.37,NW,322,5.0,11.0,69,0.00,,,0.00,Wunderground v.1.15,2013-01-24 23:38:00,
2013-01-24 18:40:00,5.7,-2.3,30.37,West,278,6.0,11.0,69,0.00,,,0.00,Wunderground v.1.15,2013-01-24 23:40:00,
2013-01-24 18:42:00,5.7,-2.0,30.37,West,275,9.0,15.0,70,0.00,,,0.00,Wunderground v.1.15,2013-01-24 23:42:00,
2013-01-24 18:43:00,5.7,-2.0,30.37,West,270,3.0,15.0,70,0.00,,,0.00,Wunderground v.1.15,2013-01-24 23:43:00,
2013-01-24 18:45:00,5.7,-2.0,30.37,West,261,4.0,15.0,70,0.00,,,0.00,Wunderground v.1.15,2013-01-24 23:45:00,
2013-01-24 18:48:00,5.6,-2.1,30.37,West,271,11.0,15.0,70,0.00,,,0.00,Wunderground v.1.15,2013-01-24 23:48:00,
2013-01-24 18:49:00,5.6,-2.1,30.37,West,275,4.0,15.0,70,0.00,,,0.00,Wunderground v.1.15,2013-01-24 23:49:00,
2013-01-24 18:53:00,5.6,-2.1,30.37,SSW,209,0.0,5.0,70,0.00,,,0.00,Wunderground v.1.15,2013-01-24 23:53:00,
2013-01-24 18:54:00,5.6,-2.1,30.37,WNW,302,6.0,7.0,70,0.00,,,0.00,Wunderground v.1.15,2013-01-24 23:54:00,
2013-01-24 18:58:00,5.7,-2.0,30.37,NW,316,2.0,13.0,70,0.00,,,0.00,Wunderground v.1.15,2013-01-24 23:58:00,
2013-01-24 18:59:00,5.6,-2.1,30.37,WNW,282,13.0,13.0,70,0.00,,,0.00,Wunderground v.1.15,2013-01-24 23:59:00,
2013-01-24 19:00:00,5.7,-2.0,30.37,West,273,4.0,14.0,70,0.00,,,0.00,Wunderground v.1.15,2013-01-25 00:00:00,
2013-01-24 19:02:00,5.8,-1.9,30.37,NW,309,5.0,6.0,70,0.00,,,0.00,Wunderground v.1.15,2013-01-25 00:02:00,
2013-01-24 19:03:00,5.8,-1.9,30.37,West,281,11.0,11.0,70,0.00,,,0.00,Wunderground v.1.15,2013-01-25 00:03:00,
2013-01-24 19:05:00,5.8,-2.2,30.37,WSW,254,2.0,11.0,69,0.00,,,0.00,Wunderground v.1.15,2013-01-25 00:05:00,
2013-01-24 19:07:00,5.7,-2.0,30.37,WNW,295,4.0,11.0,70,0.00,,,0.00,Wunderground v.1.15,2013-01-25 00:07:00,
2013-01-24 19:09:00,5.8,-1.9,30.37,NW,316,0.0,11.0,70,0.00,,,0.00,Wunderground v.1.15,2013-01-25 00:09:00,
2013-01-24 19:10:00,5.7,-2.3,30.38,WNW,286,0.0,11.0,69,0.00,,,0.00,Wunderground v.1.15,2013-01-25 00:10:00,
2013-01-24 19:12:00,5.8,-1.9,30.37,West,263,8.0,8.0,70,0.00,,,0.00,Wunderground v.1.15,2013-01-25 00:12:00,
2013-01-24 19:15:00,5.8,-2.2,30.38,West,269,2.0,13.0,69,0.00,,,0.00,Wunderground v.1.15,2013-01-25 00:15:00,
2013-01-24 19:16:00,5.8,-2.2,30.38,WNW,292,2.0,13.0,69,0.00,,,0.00,Wunderground v.1.15,2013-01-25 00:16:00,
2013-01-24 19:20:00,5.8,-1.9,30.38,SSW,207,11.0,13.0,70,0.00,,,0.00,Wunderground v.1.15,2013-01-25 00:20:00,
2013-01-24 19:21:00,5.8,-1.9,30.38,WSW,242,6.0,13.0,70,0.00,,,0.00,Wunderground v.1.15,2013-01-25 00:21:00,
2013-01-24 19:25:00,5.8,-1.9,30.38,NNE,19,3.0,9.0,70,0.00,,,0.00,Wunderground v.1.15,2013-01-25 00:25:00,
2013-01-24 19:26:00,5.8,-1.9,30.38,SW,225,1.0,9.0,70,0.00,,,0.00,Wunderground v.1.15,2013-01-25 00:26:00,
2013-01-24 19:28:00,5.8,-1.9,30.38,WSW,243,2.0,9.0,70,0.00,,,0.00,Wunderground v.1.15,2013-01-25 00:28:00,
2013-01-24 19:30:00,5.8,-1.9,30.39,West,277,4.0,10.0,70,0.00,,,0.00,Wunderground v.1.15,2013-01-25 00:30:00,
2013-01-24 19:31:00,5.8,-1.9,30.38,West,273,4.0,10.0,70,0.00,,,0.00,Wunderground v.1.15,2013-01-25 00:31:00,
2013-01-24 19:33:00,5.8,-1.6,30.38,WSW,248,3.0,6.0,71,0.00,,,0.00,Wunderground v.1.15,2013-01-25 00:33:00,
2013-01-24 19:36:00,5.8,-1.6,30.38,West,276,2.0,6.0,71,0.00,,,0.00,Wunderground v.1.15,2013-01-25 00:36:00,
2013-01-24 19:37:00,5.8,-1.6,30.38,WNW,293,5.0,9.0,71,0.00,,,0.00,Wunderground v.1.15,2013-01-25 00:37:00,
2013-01-24 19:38:00,5.8,-1.6,30.39,NW,321,3.0,9.0,71,0.00,,,0.00,Wunderground v.1.15,2013-01-25 00:38:00,
2013-01-24 19:39:00,5.8,-1.6,30.38,West,266,3.0,9.0,71,0.00,,,0.00,Wunderground v.1.15,2013-01-25 00:39:00,
2013-01-24 19:41:00,5.8,-1.6,30.39,West,264,10.0,10.0,71,0.00,,,0.00,Wunderground v.1.15,2013-01-25 00:41:00,
2013-01-24 19:42:00,5.7,-1.7,30.39,SW,224,6.0,10.0,71,0.00,,,0.00,Wunderground v.1.15,2013-01-25 00:42:00,
2013-01-24 19:43:00,5.8,-1.9,30.39,NW,316,4.0,10.0,70,0.00,,,0.00,Wunderground v.1.15,2013-01-25 00:43:00,
2013-01-24 19:44:00,5.8,-1.6,30.39,NNW,328,6.0,10.0,71,0.00,,,0.00,Wunderground v.1.15,2013-01-25 00:44:00,
2013-01-24 19:47:00,5.8,-1.6,30.39,West,279,1.0,10.0,71,0.00,,,0.00,Wunderground v.1.15,2013-01-25 00:47:00,
2013-01-24 19:49:00,5.7,-1.7,30.38,WNW,298,2.0,10.0,71,0.00,,,0.00,Wunderground v.1.15,2013-01-25 00:49:00,
2013-01-24 19:50:00,5.7,-1.7,30.39,WNW,296,4.0,10.0,71,0.00,,,0.00,Wunderground v.1.15,2013-01-25 00:50:00,
2013-01-24 19:53:00,5.7,-1.7,30.39,SW,229,5.0,5.0,71,0.00,,,0.00,Wunderground v.1.15,2013-01-25 00:53:00,
2013-01-24 19:55:00,5.7,-1.7,30.39,NW,307,6.0,11.0,71,0.00,,,0.00,Wunderground v.1.15,2013-01-25 00:55:00,
2013-01-24 19:56:00,5.7,-1.7,30.39,WSW,239,1.0,11.0,71,0.00,,,0.00,Wunderground v.1.15,2013-01-25 00:56:00,
2013-01-24 19:58:00,5.7,-1.7,30.39,NW,310,3.0,11.0,71,0.00,,,0.00,Wunderground v.1.15,2013-01-25 00:58:00,
2013-01-24 20:01:00,5.7,-1.7,30.39,West,281,3.0,11.0,71,0.00,,,0.00,Wunderground v.1.15,2013-01-25 01:01:00,
2013-01-24 20:02:00,5.7,-1.7,30.39,West,273,5.0,5.0,71,0.00,,,0.00,Wunderground v.1.15,2013-01-25 01:02:00,
2013-01-24 20:03:00,5.7,-1.7,30.39,West,273,5.0,5.0,71,0.00,,,0.00,Wunderground v.1.15,2013-01-25 01:03:00,
2013-01-24 20:07:00,5.6,-1.8,30.39,WNW,294,4.0,9.0,71,0.00,,,0.00,Wunderground v.1.15,2013-01-25 01:07:00,
2013-01-24 20:09:00,5.6,-1.5,30.39,West,277,4.0,9.0,72,0.00,,,0.00,Wunderground v.1.15,2013-01-25 01:09:00,
2013-01-24 20:12:00,5.6,-1.5,30.39,WNW,303,4.0,4.0,72,0.00,,,0.00,Wunderground v.1.15,2013-01-25 01:12:00,
2013-01-24 20:15:00,5.5,-1.6,30.39,WNW,286,7.0,7.0,72,0.00,,,0.00,Wunderground v.1.15,2013-01-25 01:15:00,
2013-01-24 20:16:00,5.5,-1.6,30.39,NNW,327,1.0,7.0,72,0.00,,,0.00,Wunderground v.1.15,2013-01-25 01:16:00,
2013-01-24 20:17:00,5.4,-1.7,30.39,NW,309,2.0,7.0,72,0.00,,,0.00,Wunderground v.1.15,2013-01-25 01:17:00,
2013-01-24 20:19:00,5.4,-1.4,30.38,West,274,8.0,8.0,73,0.00,,,0.00,Wunderground v.1.15,2013-01-25 01:19:00,
2013-01-24 20:20:00,5.4,-1.4,30.38,WNW,287,2.0,8.0,73,0.00,,,0.00,Wunderground v.1.15,2013-01-25 01:20:00,
2013-01-24 20:22:00,5.4,-1.4,30.39,NW,306,4.0,4.0,73,0.00,,,0.00,Wunderground v.1.15,2013-01-25 01:22:00,
2013-01-24 20:25:00,5.3,-1.5,30.39,WNW,289,5.0,8.0,73,0.00,,,0.00,Wunderground v.1.15,2013-01-25 01:25:00,
2013-01-24 20:28:00,5.3,-1.5,30.39,WSW,252,7.0,8.0,73,0.00,,,0.00,Wunderground v.1.15,2013-01-25 01:28:00,
2013-01-24 20:29:00,5.3,-1.5,30.39,NW,324,3.0,8.0,73,0.00,,,0.00,Wunderground v.1.15,2013-01-25 01:29:00,
2013-01-24 20:31:00,5.2,-1.6,30.39,West,259,3.0,8.0,73,0.00,,,0.00,Wunderground v.1.15,2013-01-25 01:31:00,
2013-01-24 20:33:00,5.2,-1.3,30.39,West,267,0.0,3.0,74,0.00,,,0.00,Wunderground v.1.15,2013-01-25 01:33:00,
2013-01-24 20:36:00,5.1,-1.4,30.39,West,269,0.0,4.0,74,0.00,,,0.00,Wunderground v.1.15,2013-01-25 01:36:00,
2013-01-24 20:37:00,5.1,-1.4,30.39,NW,313,0.0,4.0,74,0.00,,,0.00,Wunderground v.1.15,2013-01-25 01:37:00,
2013-01-24 20:38:00,5.1,-1.4,30.39,WSW,252,1.0,4.0,74,0.00,,,0.00,Wunderground v.1.15,2013-01-25 01:38:00,
2013-01-24 20:41:00,5.0,-1.5,30.39,West,266,3.0,6.0,74,0.00,,,0.00,Wunderground v.1.15,2013-01-25 01:41:00,
2013-01-24 20:43:00,5.0,-1.5,30.39,NW,306,3.0,3.0,74,0.00,,,0.00,Wunderground v.1.15,2013-01-25 01:43:00,
2013-01-24 20:45:00,5.0,-1.5,30.39,NW,316,1.0,3.0,74,0.00,,,0.00,Wunderground v.1.15,2013-01-25 01:45:00,
2013-01-24 20:47:00,5.0,-1.5,30.39,WNW,293,0.0,3.0,74,0.00,,,0.00,Wunderground v.1.15,2013-01-25 01:47:00,
2013-01-24 20:48:00,5.0,-1.5,30.39,West,266,1.0,4.0,74,0.00,,,0.00,Wunderground v.1.15,2013-01-25 01:48:00,
2013-01-24 20:51:00,5.0,-1.5,30.39,West,267,2.0,5.0,74,0.00,,,0.00,Wunderground v.1.15,2013-01-25 01:51:00,
2013-01-24 20:54:00,5.0,-1.5,30.39,WNW,284,0.0,5.0,74,0.00,,,0.00,Wunderground v.1.15,2013-01-25 01:54:00,
2013-01-24 20:56:00,4.9,-1.6,30.39,NW,307,0.0,5.0,74,0.00,,,0.00,Wunderground v.1.15,2013-01-25 01:56:00,
2013-01-24 20:58:00,4.9,-1.6,30.39,NW,304,2.0,5.0,74,0.00,,,0.00,Wunderground v.1.15,2013-01-25 01:58:00,
2013-01-24 20:59:00,4.9,-1.6,30.39,WNW,288,1.0,5.0,74,0.00,,,0.00,Wunderground v.1.15,2013-01-25 01:59:00,
2013-01-24 21:01:00,4.8,-1.7,30.39,WNW,300,1.0,6.0,74,0.00,,,0.00,Wunderground v.1.15,2013-01-25 02:01:00,
2013-01-24 21:02:00,4.8,-1.7,30.39,NW,312,0.0,3.0,74,0.00,,,0.00,Wunderground v.1.15,2013-01-25 02:02:00,
2013-01-24 21:05:00,4.7,-1.8,30.39,West,281,0.0,5.0,74,0.00,,,0.00,Wunderground v.1.15,2013-01-25 02:05:00,
2013-01-24 21:06:00,4.7,-1.8,30.39,WNW,296,4.0,5.0,74,0.00,,,0.00,Wunderground v.1.15,2013-01-25 02:06:00,
2013-01-24 21:07:00,4.7,-1.8,30.39,West,277,6.0,6.0,74,0.00,,,0.00,Wunderground v.1.15,2013-01-25 02:07:00,
2013-01-24 21:08:00,4.7,-1.8,30.39,West,263,3.0,6.0,74,0.00,,,0.00,Wunderground v.1.15,2013-01-25 02:08:00,
2013-01-24 21:10:00,4.7,-1.8,30.39,WNW,303,1.0,6.0,74,0.00,,,0.00,Wunderground v.1.15,2013-01-25 02:10:00,
2013-01-24 21:12:00,4.7,-1.8,30.39,West,281,3.0,3.0,74,0.00,,,0.00,Wunderground v.1.15,2013-01-25 02:12:00,
2013-01-24 21:13:00,4.7,-1.8,30.39,WNW,285,2.0,3.0,74,0.00,,,0.00,Wunderground v.1.15,2013-01-25 02:13:00,
2013-01-24 21:15:00,4.7,-1.8,30.38,WNW,302,2.0,3.0,74,0.00,,,0.00,Wunderground v.1.15,2013-01-25 02:15:00,
2013-01-24 21:17:00,4.7,-1.8,30.39,WNW,284,2.0,3.0,74,0.00,,,0.00,Wunderground v.1.15,2013-01-25 02:17:00,
2013-01-24 21:21:00,4.7,-1.8,30.38,West,259,1.0,5.0,74,0.00,,,0.00,Wunderground v.1.15,2013-01-25 02:21:00,
2013-01-24 21:22:00,4.6,-1.9,30.38,WNW,282,2.0,3.0,74,0.00,,,0.00,Wunderground v.1.15,2013-01-25 02:22:00,
2013-01-24 21:23:00,4.6,-1.9,30.38,WNW,284,1.0,4.0,74,0.00,,,0.00,Wunderground v.1.15,2013-01-25 02:23:00,
2013-01-24 21:27:00,4.6,-1.9,30.39,NW,311,1.0,4.0,74,0.00,,,0.00,Wunderground v.1.15,2013-01-25 02:27:00,
2013-01-24 21:28:00,4.6,-1.9,30.39,WNW,286,2.0,4.0,74,0.00,,,0.00,Wunderground v.1.15,2013-01-25 02:28:00,
2013-01-24 21:30:00,4.6,-1.9,30.39,WNW,295,1.0,4.0,74,0.00,,,0.00,Wunderground v.1.15,2013-01-25 02:30:00,
2013-01-24 21:31:00,4.6,-1.9,30.39,West,271,0.0,4.0,74,0.00,,,0.00,Wunderground v.1.15,2013-01-25 02:31:00,
2013-01-24 21:33:00,4.6,-1.9,30.39,West,281,1.0,5.0,74,0.00,,,0.00,Wunderground v.1.15,2013-01-25 02:33:00,
2013-01-24 21:34:00,4.6,-1.9,30.39,WNW,292,1.0,5.0,74,0.00,,,0.00,Wunderground v.1.15,2013-01-25 02:34:00,
2013-01-24 21:35:00,4.6,-1.9,30.39,NW,308,2.0,5.0,74,0.00,,,0.00,Wunderground v.1.15,2013-01-25 02:35:00,
2013-01-24 21:38:00,4.6,-1.9,30.39,West,261,2.0,5.0,74,0.00,,,0.00,Wunderground v.1.15,2013-01-25 02:38:00,
2013-01-24 21:39:00,4.6,-1.9,30.39,NW,316,1.0,5.0,74,0.00,,,0.00,Wunderground v.1.15,2013-01-25 02:39:00,
2013-01-24 21:40:00,4.6,-2.2,30.39,West,281,2.0,5.0,73,0.00,,,0.00,Wunderground v.1.15,2013-01-25 02:40:00,
2013-01-24 21:41:00,4.6,-2.2,30.39,WNW,300,2.0,5.0,73,0.00,,,0.00,Wunderground v.1.15,2013-01-25 02:41:00,
2013-01-24 21:44:00,4.6,-2.2,30.39,West,276,4.0,4.0,73,0.00,,,0.00,Wunderground v.1.15,2013-01-25 02:44:00,
2013-01-24 21:45:00,4.6,-2.2,30.39,WNW,297,1.0,4.0,73,0.00,,,0.00,Wunderground v.1.15,2013-01-25 02:45:00,
2013-01-24 21:46:00,4.6,-2.2,30.39,West,264,1.0,4.0,73,0.00,,,0.00,Wunderground v.1.15,2013-01-25 02:46:00,
2013-01-24 21:49:00,4.6,-2.2,30.39,NNW,329,0.0,4.0,73,0.00,,,0.00,Wunderground v.1.15,2013-01-25 02:49:00,
2013-01-24 21:50:00,4.6,-2.2,30.39,West,281,3.0,4.0,73,0.00,,,0.00,Wunderground v.1.15,2013-01-25 02:50:00,
2013-01-24 21:51:00,4.6,-2.2,30.39,West,281,3.0,4.0,73,0.00,,,0.00,Wunderground v.1.15,2013-01-25 02:51:00,
2013-01-24 21:55:00,4.6,-2.2,30.39,WNW,303,0.0,3.0,73,0.00,,,0.00,Wunderground v.1.15,2013-01-25 02:55:00,
2013-01-24 21:57:00,4.5,-2.3,30.39,West,270,1.0,3.0,73,0.00,,,0.00,Wunderground v.1.15,2013-01-25 02:57:00,
2013-01-24 22:00:00,4.5,-2.3,30.39,West,276,0.0,3.0,73,0.00,,,0.00,Wunderground v.1.15,2013-01-25 03:00:00,
2013-01-24 22:03:00,4.5,-2.3,30.40,WNW,292,1.0,1.0,73,0.00,,,0.00,Wunderground v.1.15,2013-01-25 03:03:00,
2013-01-24 22:07:00,4.4,-2.3,30.40,West,271,1.0,2.0,73,0.00,,,0.00,Wunderground v.1.15,2013-01-25 03:07:00,
2013-01-24 22:08:00,4.4,-2.3,30.40,West,273,2.0,3.0,73,0.00,,,0.00,Wunderground v.1.15,2013-01-25 03:08:00,
2013-01-24 22:09:00,4.4,-2.3,30.40,WSW,257,5.0,5.0,73,0.00,,,0.00,Wunderground v.1.15,2013-01-25 03:09:00,
2013-01-24 22:13:00,4.4,-2.3,30.40,WNW,284,3.0,3.0,73,0.00,,,0.00,Wunderground v.1.15,2013-01-25 03:13:00,
2013-01-24 22:14:00,4.4,-2.3,30.39,WNW,284,0.0,3.0,73,0.00,,,0.00,Wunderground v.1.15,2013-01-25 03:14:00,
2013-01-24 22:16:00,4.4,-2.3,30.40,WNW,292,3.0,4.0,73,0.00,,,0.00,Wunderground v.1.15,2013-01-25 03:16:00,
2013-01-24 22:18:00,4.4,-2.3,30.40,WNW,284,3.0,5.0,73,0.00,,,0.00,Wunderground v.1.15,2013-01-25 03:18:00,
2013-01-24 22:19:00,4.4,-2.3,30.40,West,278,4.0,5.0,73,0.00,,,0.00,Wunderground v.1.15,2013-01-25 03:19:00,
2013-01-24 22:21:00,4.5,-2.3,30.40,WNW,288,2.0,5.0,73,0.00,,,0.00,Wunderground v.1.15,2013-01-25 03:21:00,
2013-01-24 22:22:00,4.5,-2.3,30.40,West,273,4.0,4.0,73,0.00,,,0.00,Wunderground v.1.15,2013-01-25 03:22:00,
2013-01-24 22:24:00,4.6,-2.2,30.40,WNW,300,0.0,6.0,73,0.00,,,0.00,Wunderground v.1.15,2013-01-25 03:24:00,
2013-01-24 22:25:00,4.6,-2.2,30.40,WNW,288,2.0,6.0,73,0.00,,,0.00,Wunderground v.1.15,2013-01-25 03:25:00,
2013-01-24 22:26:00,4.6,-2.2,30.40,West,273,3.0,6.0,73,0.00,,,0.00,Wunderground v.1.15,2013-01-25 03:26:00,
2013-01-24 22:27:00,4.7,-2.1,30.40,WNW,288,0.0,6.0,73,0.00,,,0.00,Wunderground v.1.15,2013-01-25 03:27:00,
2013-01-24 22:29:00,4.7,-2.1,30.40,WNW,302,0.0,6.0,73,0.00,,,0.00,Wunderground v.1.15,2013-01-25 03:29:00,
2013-01-24 22:31:00,4.6,-2.2,30.40,West,274,1.0,6.0,73,0.00,,,0.00,Wunderground v.1.15,2013-01-25 03:31:00,
2013-01-24 22:32:00,4.6,-2.2,30.40,WSW,258,0.0,2.0,73,0.00,,,0.00,Wunderground v.1.15,2013-01-25 03:32:00,
2013-01-24 22:34:00,4.6,-2.2,30.40,WNW,282,1.0,3.0,73,0.00,,,0.00,Wunderground v.1.15,2013-01-25 03:34:00,
2013-01-24 22:36:00,4.6,-2.4,30.40,West,280,2.0,3.0,72,0.00,,,0.00,Wunderground v.1.15,2013-01-25 03:36:00,
2013-01-24 22:37:00,4.6,-2.4,30.40,West,281,3.0,3.0,72,0.00,,,0.00,Wunderground v.1.15,2013-01-25 03:37:00,
2013-01-24 22:40:00,4.6,-2.2,30.40,WNW,290,2.0,5.0,73,0.00,,,0.00,Wunderground v.1.15,2013-01-25 03:40:00,
2013-01-24 22:41:00,4.6,-2.2,30.40,WNW,287,1.0,5.0,73,0.00,,,0.00,Wunderground v.1.15,2013-01-25 03:41:00,
2013-01-24 22:42:00,4.6,-2.2,30.40,West,281,3.0,3.0,73,0.00,,,0.00,Wunderground v.1.15,2013-01-25 03:42:00,
2013-01-24 22:43:00,4.6,-2.2,30.40,West,279,1.0,3.0,73,0.00,,,0.00,Wunderground v.1.15,2013-01-25 03:43:00,
2013-01-24 22:46:00,4.6,-2.2,30.40,West,278,1.0,3.0,73,0.00,,,0.00,Wunderground v.1.15,2013-01-25 03:46:00,
2013-01-24 22:47:00,4.6,-2.2,30.40,WNW,297,1.0,5.0,73,0.00,,,0.00,Wunderground v.1.15,2013-01-25 03:47:00,
2013-01-24 22:49:00,4.6,-2.2,30.40,WNW,296,0.0,5.0,73,0.00,,,0.00,Wunderground v.1.15,2013-01-25 03:49:00,
2013-01-24 22:51:00,4.7,-2.1,30.41,West,279,0.0,5.0,73,0.00,,,0.00,Wunderground v.1.15,2013-01-25 03:51:00,
2013-01-24 22:53:00,4.7,-2.1,30.41,West,277,0.0,1.0,73,0.00,,,0.00,Wunderground v.1.15,2013-01-25 03:53:00,
2013-01-24 22:54:00,4.7,-2.1,30.41,West,279,3.0,3.0,73,0.00,,,0.00,Wunderground v.1.15,2013-01-25 03:54:00,
2013-01-24 22:55:00,4.7,-2.1,30.41,West,279,1.0,3.0,73,0.00,,,0.00,Wunderground v.1.15,2013-01-25 03:55:00,
2013-01-24 22:56:00,4.7,-2.1,30.41,WSW,244,2.0,3.0,73,0.00,,,0.00,Wunderground v.1.15,2013-01-25 03:56:00,
2013-01-24 22:59:00,4.7,-2.1,30.41,West,267,0.0,4.0,73,0.00,,,0.00,Wunderground v.1.15,2013-01-25 03:59:00,
2013-01-24 23:01:00,4.7,-2.1,30.41,WSW,257,0.0,4.0,73,0.00,,,0.00,Wunderground v.1.15,2013-01-25 04:01:00,
2013-01-24 23:02:00,4.7,-2.1,30.41,WNW,286,2.0,2.0,73,0.00,,,0.00,Wunderground v.1.15,2013-01-25 04:02:00,
2013-01-24 23:04:00,4.7,-2.1,30.41,WNW,294,0.0,2.0,73,0.00,,,0.00,Wunderground v.1.15,2013-01-25 04:04:00,
2013-01-24 23:05:00,4.7,-2.1,30.41,West,278,1.0,3.0,73,0.00,,,0.00,Wunderground v.1.15,2013-01-25 04:05:00,
2013-01-24 23:08:00,4.7,-2.1,30.41,West,280,1.0,3.0,73,0.00,,,0.00,Wunderground v.1.15,2013-01-25 04:08:00,
2013-01-24 23:09:00,4.7,-2.1,30.41,WNW,286,3.0,4.0,73,0.00,,,0.00,Wunderground v.1.15,2013-01-25 04:09:00,
2013-01-24 23:11:00,4.7,-2.1,30.41,West,273,3.0,5.0,73,0.00,,,0.00,Wunderground v.1.15,2013-01-25 04:11:00,
2013-01-24 23:13:00,4.7,-2.1,30.41,West,277,2.0,6.0,73,0.00,,,0.00,Wunderground v.1.15,2013-01-25 04:13:00,
2013-01-24 23:14:00,4.8,-2.0,30.41,West,274,3.0,6.0,73,0.00,,,0.00,Wunderground v.1.15,2013-01-25 04:14:00,
2013-01-24 23:15:00,4.8,-2.0,30.41,WNW,285,2.0,6.0,73,0.00,,,0.00,Wunderground v.1.15,2013-01-25 04:15:00,
2013-01-24 23:16:00,4.8,-2.0,30.40,WNW,293,2.0,6.0,73,0.00,,,0.00,Wunderground v.1.15,2013-01-25 04:16:00,
2013-01-24 23:19:00,4.9,-1.9,30.40,North,355,0.0,7.0,73,0.00,,,0.00,Wunderground v.1.15,2013-01-25 04:19:00,
2013-01-24 23:20:00,4.9,-1.9,30.41,West,266,1.0,7.0,73,0.00,,,0.00,Wunderground v.1.15,2013-01-25 04:20:00,
2013-01-24 23:21:00,4.9,-1.9,30.41,ESE,105,2.0,3.0,73,0.00,,,0.00,Wunderground v.1.15,2013-01-25 04:21:00,
2013-01-24 23:23:00,4.9,-1.9,30.41,WNW,291,1.0,3.0,73,0.00,,,0.00,Wunderground v.1.15,2013-01-25 04:23:00,
2013-01-24 23:26:00,4.9,-1.9,30.41,WNW,290,2.0,4.0,73,0.00,,,0.00,Wunderground v.1.15,2013-01-25 04:26:00,
2013-01-24 23:27:00,4.9,-2.2,30.41,WNW,294,3.0,4.0,72,0.00,,,0.00,Wunderground v.1.15,2013-01-25 04:27:00,
2013-01-24 23:29:00,4.9,-2.2,30.41,WNW,299,3.0,4.0,72,0.00,,,0.00,Wunderground v.1.15,2013-01-25 04:29:00,
2013-01-24 23:32:00,5.0,-2.1,30.41,WSW,252,0.0,2.0,72,0.00,,,0.00,Wunderground v.1.15,2013-01-25 04:32:00,
2013-01-24 23:33:00,5.0,-2.1,30.41,NW,309,2.0,4.0,72,0.00,,,0.00,Wunderground v.1.15,2013-01-25 04:33:00,
2013-01-24 23:34:00,5.0,-2.4,30.41,WSW,246,1.0,4.0,71,0.00,,,0.00,Wunderground v.1.15,2013-01-25 04:34:00,
2013-01-24 23:37:00,5.0,-2.4,30.41,WNW,288,2.0,4.0,71,0.00,,,0.00,Wunderground v.1.15,2013-01-25 04:37:00,
2013-01-24 23:38:00,5.0,-2.4,30.41,WNW,300,0.0,4.0,71,0.00,,,0.00,Wunderground v.1.15,2013-01-25 04:38:00,
2013-01-24 23:39:00,5.0,-2.4,30.41,NW,324,0.0,4.0,71,0.00,,,0.00,Wunderground v.1.15,2013-01-25 04:39:00,
2013-01-24 23:40:00,5.0,-2.4,30.41,NW,306,0.0,4.0,71,0.00,,,0.00,Wunderground v.1.15,2013-01-25 04:40:00,
2013-01-24 23:42:00,4.9,-2.5,30.42,SSW,212,2.0,2.0,71,0.00,,,0.00,Wunderground v.1.15,2013-01-25 04:42:00,
2013-01-24 23:43:00,4.9,-2.5,30.42,NW,308,0.0,3.0,71,0.00,,,0.00,Wunderground v.1.15,2013-01-25 04:43:00,
2013-01-24 23:44:00,4.9,-2.7,30.42,North,5,0.0,3.0,70,0.00,,,0.00,Wunderground v.1.15,2013-01-25 04:44:00,
2013-01-24 23:45:00,4.9,-2.7,30.42,WNW,298,2.0,3.0,70,0.00,,,0.00,Wunderground v.1.15,2013-01-25 04:45:00,
2013-01-24 23:48:00,4.9,-2.7,30.42,West,275,2.0,4.0,70,0.00,,,0.00,Wunderground v.1.15,2013-01-25 04:48:00,
2013-01-24 23:49:00,4.9,-2.7,30.42,West,277,2.0,5.0,70,0.00,,,0.00,Wunderground v.1.15,2013-01-25 04:49:00,
2013-01-24 23:50:00,4.9,-2.7,30.42,West,281,2.0,5.0,70,0.00,,,0.00,Wunderground v.1.15,2013-01-25 04:50:00,
2013-01-24 23:54:00,5.0,-2.7,30.42,WNW,301,5.0,8.0,70,0.00,,,0.00,Wunderground v.1.15,2013-01-25 04:54:00,
2013-01-24 23:55:00,5.0,-3.0,30.42,West,281,1.0,8.0,69,0.00,,,0.00,Wunderground v.1.15,2013-01-25 04:55:00,
2013-01-24 23:58:00,5.0,-3.0,30.42,West,281,3.0,8.0,69,0.00,,,0.00,Wunderground v.1.15,2013-01-25 04:58:00,